Observation data for Van Horn on 12/08/2018      Previous  Date       Current Mesonet Observations  Soil Data  Daily Summary Page  Observations in Plain Language
KVA1 080600Z 02011G16KT 03/02 A3019 RMK A01 T00250021  RH  097%=      5-min Rain = 0
KVA1 080601Z 02012KT 03/02 A3019 RMK A01 T00250021  RH  097%=      5-min Rain = 0
KVA1 080602Z 02012KT 03/02 A3019 RMK A01 T00250021  RH  097%=      5-min Rain = 0
KVA1 080603Z 02014KT 03/02 A3019 RMK A01 T00250021  RH  097%=      5-min Rain = 0
KVA1 080604Z 02014KT 03/02 A3019 RMK A01 T00250021  RH  097%=      5-min Rain = 0
KVA1 080605Z 02014KT 03/02 A3018 RMK A01 T00250021  RH  097%=      5-min Rain = 0
KVA1 080606Z 03013KT 03/02 A3018 RMK A01 T00250021  RH  097%=      5-min Rain = 0
KVA1 080607Z 03014KT 03/02 A3018 RMK A01 T00250021  RH  097%=      5-min Rain = 0
KVA1 080608Z 02013KT 02/02 A3018 RMK A01 T00240020  RH  097%=      5-min Rain = 0
KVA1 080609Z 02011KT 02/02 A3019 RMK A01 T00240020  RH  097%=      5-min Rain = 0
KVA1 080610Z 02009KT 03/02 A3019 RMK A01 T00250020  RH  097%=      5-min Rain = 0
KVA1 080611Z 01012KT 03/02 A3019 RMK A01 T00250021  RH  097%=      5-min Rain = 0
KVA1 080612Z 02012KT 03/02 A3019 RMK A01 T00250021  RH  097%=      5-min Rain = 0
KVA1 080613Z 02012KT 03/02 A3019 RMK A01 T00250021  RH  097%=      5-min Rain = 0
KVA1 080614Z 03012KT 03/02 A3019 RMK A01 T00250021  RH  097%=      5-min Rain = 0
KVA1 080615Z 02011KT 03/02 A3019 RMK A01 T00250021  RH  097%=      5-min Rain = 0
KVA1 080616Z 02009G15KT 03/02 A3019 RMK A01 T00250021  RH  097%=      5-min Rain = 0
KVA1 080617Z 03010KT 03/02 A3019 RMK A01 T00250021  RH  097%=      5-min Rain = 0
KVA1 080618Z 02010KT 03/02 A3019 RMK A01 T00250020  RH  097%=      5-min Rain = 0
KVA1 080619Z 02012KT 03/02 A3019 RMK A01 T00250020  RH  097%=      5-min Rain = 0
KVA1 080620Z 02011KT 03/02 A3019 RMK A01 T00250020  RH  097%=      5-min Rain = 0
KVA1 080621Z 02011KT 03/02 A3019 RMK A01 T00250020  RH  097%=      5-min Rain = 0
KVA1 080622Z 02009G14KT 03/02 A3019 RMK A01 T00250020  RH  097%=      5-min Rain = 0
KVA1 080623Z 02008KT 03/02 A3019 RMK A01 T00250020  RH  097%=      5-min Rain = 0
KVA1 080624Z 02012KT 03/02 A3019 RMK A01 T00250021  RH  097%=      5-min Rain = 0
KVA1 080625Z 02012KT 03/02 A3019 RMK A01 T00250021  RH  097%=      5-min Rain = 0
KVA1 080626Z 02009KT 03/02 A3019 RMK A01 T00250021  RH  097%=      5-min Rain = 0
KVA1 080627Z 02011KT 03/02 A3019 RMK A01 T00250021  RH  097%=      5-min Rain = 0
KVA1 080628Z 01011KT 03/02 A3019 RMK A01 T00250021  RH  097%=      5-min Rain = 0
KVA1 080629Z 02010KT 03/02 A3018 RMK A01 T00250021  RH  097%=      5-min Rain = 0
KVA1 080630Z 02010KT 03/02 A3018 RMK A01 T00250021  RH  097%=      5-min Rain = 0
KVA1 080631Z 01013KT 03/02 A3018 RMK A01 T00250021  RH  097%=      5-min Rain = 0
KVA1 080632Z 01011KT 03/02 A3018 RMK A01 T00250021  RH  097%=      5-min Rain = 0
KVA1 080633Z 01011KT 03/02 A3018 RMK A01 T00250021  RH  097%=      5-min Rain = 0
KVA1 080634Z 01011KT 03/02 A3018 RMK A01 T00250021  RH  097%=      5-min Rain = 0
KVA1 080635Z 01013KT 03/02 A3018 RMK A01 T00250021  RH  097%=      5-min Rain = 0
KVA1 080636Z 02013KT 03/02 A3018 RMK A01 T00250021  RH  097%=      5-min Rain = 0
KVA1 080637Z 01012KT 03/02 A3018 RMK A01 T00250021  RH  097%=      5-min Rain = 0
KVA1 080638Z 01012KT 03/02 A3018 RMK A01 T00250021  RH  097%=      5-min Rain = 0
KVA1 080639Z 01012KT 03/02 A3018 RMK A01 T00250021  RH  097%=      5-min Rain = 0
KVA1 080640Z 01009KT 03/02 A3018 RMK A01 T00250020  RH  097%=      5-min Rain = 0
KVA1 080641Z 02010KT 03/02 A3018 RMK A01 T00250020  RH  097%=      5-min Rain = 0
KVA1 080642Z 02011KT 03/02 A3018 RMK A01 T00250020  RH  097%=      5-min Rain = 0
KVA1 080643Z 01012KT 03/02 A3018 RMK A01 T00250020  RH  097%=      5-min Rain = 0
KVA1 080644Z 01011KT 03/02 A3018 RMK A01 T00250020  RH  097%=      5-min Rain = 0
KVA1 080645Z 02010KT 03/02 A3018 RMK A01 T00250020  RH  097%=      5-min Rain = 0
KVA1 080646Z 02009KT 03/02 A3018 RMK A01 T00250020  RH  097%=      5-min Rain = 0
KVA1 080647Z 01010G15KT 03/02 A3018 RMK A01 T00250021  RH  097%=      5-min Rain = 0
KVA1 080648Z 01012KT 03/02 A3018 RMK A01 T00250021  RH  097%=      5-min Rain = 0
KVA1 080649Z 02013KT 03/02 A3018 RMK A01 T00250021  RH  097%=      5-min Rain = 0
KVA1 080650Z 01010KT 03/02 A3018 RMK A01 T00250020  RH  097%=      5-min Rain = 0
KVA1 080651Z 01008KT 02/02 A3019 RMK A01 T00240020  RH  097%=      5-min Rain = 0
KVA1 080652Z 01010KT 03/02 A3019 RMK A01 T00250021  RH  097%=      5-min Rain = 0
KVA1 080653Z 01010KT 03/02 A3019 RMK A01 T00250021  RH  097%=      5-min Rain = 0
KVA1 080654Z 02009KT 03/02 A3019 RMK A01 T00250021  RH  097%=      5-min Rain = 0
KVA1 080655Z 02009KT 03/02 A3019 RMK A01 T00250020  RH  097%=      5-min Rain = 0
KVA1 080656Z 01008G13KT 03/02 A3019 RMK A01 T00250021  RH  097%=      5-min Rain = 0
KVA1 080657Z 01011KT 03/02 A3019 RMK A01 T00250021  RH  097%=      5-min Rain = 0
KVA1 080658Z 01013KT 03/02 A3019 RMK A01 T00250021  RH  097%=      5-min Rain = 0
KVA1 080659Z 01012KT 03/02 A3019 RMK A01 T00250021  RH  097%=      5-min Rain = 0
KVA1 080700Z 01011KT 03/02 A3019 RMK A01 T00250021  RH  097%=      5-min Rain = 0
KVA1 080701Z 02011KT 03/02 A3019 RMK A01 T00250021  RH  097%=      5-min Rain = 0
KVA1 080702Z 01010KT 03/02 A3019 RMK A01 T00250021  RH  097%=      5-min Rain = 0
KVA1 080703Z 01011KT 03/02 A3019 RMK A01 T00250021  RH  097%=      5-min Rain = 0
KVA1 080704Z 02010KT 03/02 A3019 RMK A01 T00250021  RH  097%=      5-min Rain = 0
KVA1 080705Z 01010KT 03/02 A3019 RMK A01 T00250021  RH  097%=      5-min Rain = 0
KVA1 080706Z 02009KT 03/02 A3019 RMK A01 T00250021  RH  097%=      5-min Rain = 0
KVA1 080707Z 01008G13KT 03/02 A3019 RMK A01 T00250021  RH  097%=      5-min Rain = 0
KVA1 080708Z 01010KT 03/02 A3019 RMK A01 T00250021  RH  097%=      5-min Rain = 0
KVA1 080709Z 02009KT 03/02 A3019 RMK A01 T00250021  RH  097%=      5-min Rain = 0
KVA1 080710Z 02009KT 03/02 A3019 RMK A01 T00250021  RH  097%=      5-min Rain = 0
KVA1 080711Z 02008KT 03/02 A3019 RMK A01 T00250021  RH  097%=      5-min Rain = 0
KVA1 080712Z 02008KT 03/02 A3019 RMK A01 T00250021  RH  097%=      5-min Rain = 0
KVA1 080713Z 02008KT 03/02 A3019 RMK A01 T00260021  RH  097%=      5-min Rain = 0
KVA1 080714Z 02011KT 03/02 A3019 RMK A01 T00260021  RH  097%=      5-min Rain = 0
KVA1 080715Z 02010KT 03/02 A3019 RMK A01 T00260021  RH  097%=      5-min Rain = 0
KVA1 080716Z 02008KT 03/02 A3019 RMK A01 T00260021  RH  097%=      5-min Rain = 0
KVA1 080717Z 02008KT 03/02 A3019 RMK A01 T00260021  RH  097%=      5-min Rain = 0
KVA1 080718Z 02008KT 03/02 A3019 RMK A01 T00260021  RH  097%=      5-min Rain = 0
KVA1 080719Z 02009KT 03/02 A3019 RMK A01 T00260021  RH  097%=      5-min Rain = 0
KVA1 080720Z 01009KT 03/02 A3019 RMK A01 T00260021  RH  097%=      5-min Rain = 0
KVA1 080721Z 01009KT 03/02 A3019 RMK A01 T00260022  RH  097%=      5-min Rain = 0
KVA1 080722Z 01011KT 03/02 A3019 RMK A01 T00260022  RH  097%=      5-min Rain = 0
KVA1 080723Z 02012KT 03/02 A3019 RMK A01 T00260021  RH  097%=      5-min Rain = 0
KVA1 080724Z 02012KT 03/02 A3019 RMK A01 T00260021  RH  097%=      5-min Rain = 0
KVA1 080725Z 02014KT 03/02 A3019 RMK A01 T00260021  RH  097%=      5-min Rain = 0
KVA1 080726Z 01014KT 03/02 A3019 RMK A01 T00260021  RH  097%=      5-min Rain = 0
KVA1 080727Z 01011G16KT 03/02 A3019 RMK A01 T00260021  RH  096%=      5-min Rain = 0
KVA1 080728Z 01010KT 03/02 A3019 RMK A01 T00260021  RH  096%=      5-min Rain = 0
KVA1 080729Z 02012KT 03/02 A3019 RMK A01 T00260021  RH  096%=      5-min Rain = 0
KVA1 080730Z 02011KT 03/02 A3019 RMK A01 T00260021  RH  096%=      5-min Rain = 0
KVA1 080731Z 02011KT 03/02 A3019 RMK A01 T00260021  RH  096%=      5-min Rain = 0
KVA1 080732Z 01011KT 03/02 A3019 RMK A01 T00260021  RH  096%=      5-min Rain = 0
KVA1 080733Z 02011KT 03/02 A3019 RMK A01 T00260021  RH  096%=      5-min Rain = 0
KVA1 080734Z 02011KT 03/02 A3019 RMK A01 T00260021  RH  096%=      5-min Rain = 0
KVA1 080735Z 02011KT 03/02 A3019 RMK A01 T00260021  RH  096%=      5-min Rain = 0
KVA1 080736Z 02011KT 03/02 A3019 RMK A01 T00260021  RH  096%=      5-min Rain = 0
KVA1 080737Z 02010KT 03/02 A3019 RMK A01 T00260021  RH  096%=      5-min Rain = 0
KVA1 080738Z 02013KT 03/02 A3019 RMK A01 T00260021  RH  097%=      5-min Rain = 0
KVA1 080739Z 02010KT 03/02 A3019 RMK A01 T00260021  RH  096%=      5-min Rain = 0
KVA1 080740Z 01011KT 03/02 A3019 RMK A01 T00260021  RH  097%=      5-min Rain = 0
KVA1 080741Z 02011KT 03/02 A3019 RMK A01 T00260021  RH  097%=      5-min Rain = 0
KVA1 080742Z 02012KT 03/02 A3019 RMK A01 T00260021  RH  097%=      5-min Rain = 0
KVA1 080743Z 02011KT 03/02 A3019 RMK A01 T00260021  RH  097%=      5-min Rain = 0
KVA1 080744Z 02012KT 03/02 A3019 RMK A01 T00260021  RH  097%=      5-min Rain = 0
KVA1 080745Z 02011KT 03/02 A3019 RMK A01 T00260021  RH  097%=      5-min Rain = 0
KVA1 080746Z 02009KT 03/02 A3019 RMK A01 T00260022  RH  097%=      5-min Rain = 0
KVA1 080747Z 02013KT 03/02 A3019 RMK A01 T00260022  RH  097%=      5-min Rain = 0
KVA1 080748Z 03012KT 03/02 A3019 RMK A01 T00260022  RH  097%=      5-min Rain = 0
KVA1 080749Z 02009KT 03/02 A3019 RMK A01 T00260021  RH  097%=      5-min Rain = 0
KVA1 080750Z 03011KT 03/02 A3019 RMK A01 T00260021  RH  097%=      5-min Rain = 0
KVA1 080751Z 02014KT 03/02 A3019 RMK A01 T00260021  RH  097%=      5-min Rain = 0
KVA1 080752Z 02011KT 03/02 A3019 RMK A01 T00260021  RH  097%=      5-min Rain = 0
KVA1 080753Z 02011KT 03/02 A3019 RMK A01 T00260021  RH  097%=      5-min Rain = 0
KVA1 080754Z 02010KT 03/02 A3019 RMK A01 T00260021  RH  097%=      5-min Rain = 0
KVA1 080755Z 03010KT 03/02 A3019 RMK A01 T00260022  RH  097%=      5-min Rain = 0
KVA1 080756Z 03011KT 03/02 A3019 RMK A01 T00260022  RH  097%=      5-min Rain = 0
KVA1 080757Z 02010KT 03/02 A3019 RMK A01 T00260022  RH  097%=      5-min Rain = 0
KVA1 080758Z 03010KT 03/02 A3019 RMK A01 T00260022  RH  097%=      5-min Rain = 0
KVA1 080759Z 03011G16KT 03/02 A3019 RMK A01 T00260022  RH  097%=      5-min Rain = 0
KVA1 080800Z 02014KT 03/02 A3019 RMK A01 T00260022  RH  097%=      5-min Rain = 0
KVA1 080801Z 03012KT 03/02 A3019 RMK A01 T00250022  RH  097%=      5-min Rain = 0
KVA1 080802Z 02010KT 03/02 A3019 RMK A01 T00250021  RH  097%=      5-min Rain = 0
KVA1 080803Z 02009KT 03/02 A3019 RMK A01 T00250022  RH  097%=      5-min Rain = 0.01
KVA1 080804Z 03010KT 03/02 A3019 RMK A01 T00250021  RH  097%=      5-min Rain = 0
KVA1 080805Z 02010G15KT 03/02 A3019 RMK A01 T00250022  RH  097%=      5-min Rain = 0
KVA1 080806Z 02012KT 03/02 A3019 RMK A01 T00250021  RH  097%=      5-min Rain = 0
KVA1 080807Z 03011KT 03/02 A3019 RMK A01 T00250022  RH  097%=      5-min Rain = 0
KVA1 080808Z 03010KT 03/02 A3019 RMK A01 T00250022  RH  098%=      5-min Rain = 0
KVA1 080809Z 03011KT 03/02 A3019 RMK A01 T00250022  RH  098%=      5-min Rain = 0
KVA1 080810Z 03010KT 03/02 A3019 RMK A01 T00250022  RH  098%=      5-min Rain = 0
KVA1 080811Z 02009KT 03/02 A3019 RMK A01 T00260022  RH  098%=      5-min Rain = 0
KVA1 080812Z 02009KT 03/02 A3019 RMK A01 T00250022  RH  098%=      5-min Rain = 0
KVA1 080813Z 02008KT 03/02 A3019 RMK A01 T00250022  RH  098%=      5-min Rain = 0
KVA1 080814Z 02012KT 03/02 A3019 RMK A01 T00260023  RH  098%=      5-min Rain = 0
KVA1 080815Z 03009KT 03/02 A3019 RMK A01 T00260023  RH  098%=      5-min Rain = 0
KVA1 080816Z 02011KT 03/02 A3019 RMK A01 T00260022  RH  098%=      5-min Rain = 0
KVA1 080817Z 03009KT 03/02 A3019 RMK A01 T00260022  RH  098%=      5-min Rain = 0
KVA1 080818Z 03009KT 03/02 A3019 RMK A01 T00260022  RH  098%=      5-min Rain = 0
KVA1 080819Z 02009KT 03/02 A3019 RMK A01 T00260022  RH  098%=      5-min Rain = 0
KVA1 080820Z 02010KT 03/02 A3019 RMK A01 T00260023  RH  098%=      5-min Rain = 0
KVA1 080821Z 03013KT 03/02 A3019 RMK A01 T00260023  RH  098%=      5-min Rain = 0
KVA1 080822Z 02011KT 03/02 A3019 RMK A01 T00250022  RH  098%=      5-min Rain = 0
KVA1 080823Z 02009KT 03/02 A3019 RMK A01 T00250022  RH  098%=      5-min Rain = 0
KVA1 080824Z 03010KT 03/02 A3019 RMK A01 T00250022  RH  098%=      5-min Rain = 0
KVA1 080825Z 02011KT 03/02 A3019 RMK A01 T00250022  RH  098%=      5-min Rain = 0
KVA1 080826Z 02009G14KT 03/02 A3019 RMK A01 T00250022  RH  098%=      5-min Rain = 0
KVA1 080827Z 02010KT 03/02 A3019 RMK A01 T00250022  RH  098%=      5-min Rain = 0
KVA1 080828Z 02009KT 03/02 A3019 RMK A01 T00250022  RH  098%=      5-min Rain = 0
KVA1 080829Z 02007KT 03/02 A3019 RMK A01 T00250022  RH  098%=      5-min Rain = 0
KVA1 080830Z 02009KT 03/02 A3019 RMK A01 T00250022  RH  098%=      5-min Rain = 0
KVA1 080831Z 02009KT 03/02 A3019 RMK A01 T00250022  RH  098%=      5-min Rain = 0
KVA1 080832Z 03010KT 03/02 A3019 RMK A01 T00250022  RH  098%=      5-min Rain = 0
KVA1 080833Z 03009KT 03/02 A3019 RMK A01 T00250022  RH  098%=      5-min Rain = 0
KVA1 080834Z 02008KT 03/02 A3019 RMK A01 T00250022  RH  098%=      5-min Rain = 0
KVA1 080835Z 03010KT 03/02 A3019 RMK A01 T00250022  RH  098%=      5-min Rain = 0
KVA1 080836Z 03010KT 03/02 A3019 RMK A01 T00250023  RH  098%=      5-min Rain = 0
KVA1 080837Z 02009KT 03/02 A3019 RMK A01 T00250022  RH  098%=      5-min Rain = 0
KVA1 080838Z 03010KT 03/02 A3019 RMK A01 T00250022  RH  098%=      5-min Rain = 0
KVA1 080839Z 02008KT 03/02 A3019 RMK A01 T00250022  RH  098%=      5-min Rain = 0
KVA1 080840Z 02010KT 03/02 A3019 RMK A01 T00250023  RH  098%=      5-min Rain = 0
KVA1 080841Z 02011KT 03/02 A3019 RMK A01 T00250022  RH  098%=      5-min Rain = 0
KVA1 080842Z 02009KT 03/02 A302 RMK A01 T00250022  RH  098%=      5-min Rain = 0
KVA1 080843Z 02008KT 03/02 A302 RMK A01 T00250022  RH  098%=      5-min Rain = 0
KVA1 080844Z 02010KT 03/02 A302 RMK A01 T00250022  RH  098%=      5-min Rain = 0
KVA1 080845Z 02010KT 03/02 A302 RMK A01 T00250022  RH  098%=      5-min Rain = 0
KVA1 080846Z 02012KT 03/02 A302 RMK A01 T00250022  RH  098%=      5-min Rain = 0
KVA1 080847Z 02011KT 03/02 A302 RMK A01 T00250022  RH  098%=      5-min Rain = 0
KVA1 080848Z 02009KT 03/02 A302 RMK A01 T00250022  RH  098%=      5-min Rain = 0
KVA1 080849Z 02009KT 03/02 A302 RMK A01 T00250022  RH  098%=      5-min Rain = 0
KVA1 080850Z 02009KT 03/02 A302 RMK A01 T00250022  RH  098%=      5-min Rain = 0
KVA1 080851Z 02009KT 03/02 A302 RMK A01 T00250022  RH  098%=      5-min Rain = 0
KVA1 080852Z 02011KT 03/02 A302 RMK A01 T00250022  RH  098%=      5-min Rain = 0
KVA1 080853Z 01009KT 03/02 A302 RMK A01 T00250022  RH  098%=      5-min Rain = 0
KVA1 080854Z 02009KT 03/02 A302 RMK A01 T00250022  RH  098%=      5-min Rain = 0
KVA1 080855Z 02008KT 03/02 A302 RMK A01 T00250022  RH  098%=      5-min Rain = 0
KVA1 080856Z 01011KT 03/02 A302 RMK A01 T00250022  RH  098%=      5-min Rain = 0
KVA1 080857Z 02011KT 03/02 A302 RMK A01 T00250022  RH  098%=      5-min Rain = 0
KVA1 080858Z 02011KT 03/02 A302 RMK A01 T00250022  RH  098%=      5-min Rain = 0
KVA1 080859Z 02009KT 03/02 A302 RMK A01 T00250022  RH  098%=      5-min Rain = 0
KVA1 080900Z 02010KT 03/02 A302 RMK A01 T00250022  RH  098%=      5-min Rain = 0
KVA1 080901Z 02011KT 03/02 A302 RMK A01 T00250022  RH  098%=      5-min Rain = 0
KVA1 080902Z 02011KT 03/02 A302 RMK A01 T00250022  RH  098%=      5-min Rain = 0
KVA1 080903Z 02012KT 03/02 A302 RMK A01 T00250022  RH  098%=      5-min Rain = 0
KVA1 080904Z 02010KT 03/02 A302 RMK A01 T00250022  RH  098%=      5-min Rain = 0
KVA1 080905Z 02011KT 03/02 A302 RMK A01 T00250022  RH  098%=      5-min Rain = 0
KVA1 080906Z 02010KT 03/02 A302 RMK A01 T00250021  RH  098%=      5-min Rain = 0
KVA1 080907Z 02009KT 03/02 A302 RMK A01 T00250021  RH  098%=      5-min Rain = 0
KVA1 080908Z 02010KT 03/02 A302 RMK A01 T00250022  RH  098%=      5-min Rain = 0
KVA1 080909Z 02012KT 03/02 A302 RMK A01 T00250022  RH  098%=      5-min Rain = 0
KVA1 080910Z 02011KT 03/02 A302 RMK A01 T00250022  RH  098%=      5-min Rain = 0
KVA1 080911Z 03011KT 03/02 A302 RMK A01 T00250022  RH  098%=      5-min Rain = 0
KVA1 080912Z 02009KT 03/02 A302 RMK A01 T00250022  RH  098%=      5-min Rain = 0
KVA1 080913Z 03008KT 03/02 A302 RMK A01 T00250022  RH  098%=      5-min Rain = 0
KVA1 080914Z 02010KT 03/02 A302 RMK A01 T00250022  RH  098%=      5-min Rain = 0
KVA1 080915Z 02007KT 03/02 A302 RMK A01 T00250022  RH  098%=      5-min Rain = 0
KVA1 080916Z 02009KT 03/02 A302 RMK A01 T00250022  RH  098%=      5-min Rain = 0
KVA1 080917Z 02011KT 03/02 A302 RMK A01 T00250022  RH  098%=      5-min Rain = 0
KVA1 080918Z 02008KT 03/02 A302 RMK A01 T00250022  RH  098%=      5-min Rain = 0
KVA1 080919Z 02008KT 03/02 A302 RMK A01 T00250022  RH  098%=      5-min Rain = 0
KVA1 080920Z 02008KT 03/02 A302 RMK A01 T00260022  RH  098%=      5-min Rain = 0
KVA1 080921Z 02011KT 03/02 A302 RMK A01 T00260022  RH  098%=      5-min Rain = 0
KVA1 080922Z 02009KT 03/02 A302 RMK A01 T00250022  RH  098%=      5-min Rain = 0
KVA1 080923Z 03010KT 03/02 A302 RMK A01 T00250022  RH  098%=      5-min Rain = 0
KVA1 080924Z 02010KT 03/02 A302 RMK A01 T00250022  RH  098%=      5-min Rain = 0
KVA1 080925Z 03008KT 03/02 A302 RMK A01 T00250022  RH  098%=      5-min Rain = 0
KVA1 080926Z 02008KT 03/02 A302 RMK A01 T00250022  RH  098%=      5-min Rain = 0
KVA1 080927Z 02009KT 03/02 A302 RMK A01 T00250022  RH  098%=      5-min Rain = 0
KVA1 080928Z 02010KT 03/02 A302 RMK A01 T00250022  RH  098%=      5-min Rain = 0
KVA1 080929Z 01010KT 03/02 A302 RMK A01 T00250022  RH  098%=      5-min Rain = 0
KVA1 080930Z 02010KT 03/02 A302 RMK A01 T00250022  RH  098%=      5-min Rain = 0
KVA1 080931Z 02010KT 03/02 A302 RMK A01 T00250022  RH  098%=      5-min Rain = 0
KVA1 080932Z 02007KT 03/02 A302 RMK A01 T00250022  RH  098%=      5-min Rain = 0
KVA1 080933Z 02010KT 03/02 A302 RMK A01 T00250022  RH  098%=      5-min Rain = 0
KVA1 080934Z 02009KT 03/02 A302 RMK A01 T00250022  RH  098%=      5-min Rain = 0
KVA1 080935Z 02007KT 03/02 A302 RMK A01 T00250022  RH  098%=      5-min Rain = 0
KVA1 080936Z 02008KT 03/02 A302 RMK A01 T00250022  RH  098%=      5-min Rain = 0
KVA1 080937Z 01009KT 03/02 A302 RMK A01 T00250022  RH  098%=      5-min Rain = 0
KVA1 080938Z 01010KT 03/02 A302 RMK A01 T00250022  RH  098%=      5-min Rain = 0
KVA1 080939Z 01009KT 03/02 A302 RMK A01 T00250022  RH  098%=      5-min Rain = 0
KVA1 080940Z 01009KT 03/02 A302 RMK A01 T00250022  RH  098%=      5-min Rain = 0
KVA1 080941Z 01008KT 03/02 A302 RMK A01 T00250022  RH  098%=      5-min Rain = 0
KVA1 080942Z 02009KT 03/02 A302 RMK A01 T00250022  RH  098%=      5-min Rain = 0
KVA1 080943Z 02008KT 03/02 A302 RMK A01 T00250022  RH  098%=      5-min Rain = 0
KVA1 080944Z 02010KT 03/02 A302 RMK A01 T00250022  RH  098%=      5-min Rain = 0
KVA1 080945Z 02010KT 03/02 A302 RMK A01 T00250022  RH  098%=      5-min Rain = 0
KVA1 080946Z 02009KT 03/02 A302 RMK A01 T00250022  RH  098%=      5-min Rain = 0
KVA1 080947Z 01009KT 03/02 A302 RMK A01 T00250022  RH  098%=      5-min Rain = 0
KVA1 080948Z 02008KT 03/02 A302 RMK A01 T00250022  RH  098%=      5-min Rain = 0
KVA1 080949Z 02008KT 03/02 A302 RMK A01 T00250022  RH  098%=      5-min Rain = 0
KVA1 080950Z 02008KT 03/02 A302 RMK A01 T00260023  RH  098%=      5-min Rain = 0
KVA1 080951Z 02008KT 03/02 A302 RMK A01 T00260023  RH  098%=      5-min Rain = 0
KVA1 080952Z 02008KT 03/02 A302 RMK A01 T00260023  RH  098%=      5-min Rain = 0
KVA1 080953Z 01008KT 03/02 A302 RMK A01 T00260023  RH  098%=      5-min Rain = 0
KVA1 080954Z 02008KT 03/02 A302 RMK A01 T00260022  RH  098%=      5-min Rain = 0
KVA1 080955Z 02007KT 03/02 A302 RMK A01 T00260023  RH  098%=      5-min Rain = 0
KVA1 080956Z 02008KT 03/02 A302 RMK A01 T00260023  RH  098%=      5-min Rain = 0
KVA1 080957Z 02010KT 03/02 A302 RMK A01 T00260022  RH  098%=      5-min Rain = 0
KVA1 080958Z 02009KT 03/02 A302 RMK A01 T00260023  RH  098%=      5-min Rain = 0
KVA1 080959Z 02008KT 03/02 A302 RMK A01 T00260023  RH  098%=      5-min Rain = 0
KVA1 081000Z 02009KT 03/02 A302 RMK A01 T00260023  RH  098%=      5-min Rain = 0
KVA1 081001Z 02009KT 03/02 A302 RMK A01 T00260023  RH  098%=      5-min Rain = 0
KVA1 081002Z 02009KT 03/02 A302 RMK A01 T00260023  RH  098%=      5-min Rain = 0
KVA1 081003Z 02009KT 03/02 A302 RMK A01 T00260023  RH  098%=      5-min Rain = 0
KVA1 081004Z 02008KT 03/02 A302 RMK A01 T00260022  RH  098%=      5-min Rain = 0
KVA1 081005Z 02009KT 03/02 A302 RMK A01 T00260023  RH  098%=      5-min Rain = 0
KVA1 081006Z 03008KT 03/02 A302 RMK A01 T00260023  RH  098%=      5-min Rain = 0
KVA1 081007Z 02008KT 03/02 A302 RMK A01 T00260023  RH  098%=      5-min Rain = 0
KVA1 081008Z 02008KT 03/02 A302 RMK A01 T00260023  RH  098%=      5-min Rain = 0
KVA1 081009Z 02007KT 03/02 A302 RMK A01 T00260023  RH  098%=      5-min Rain = 0
KVA1 081010Z 02009KT 03/02 A302 RMK A01 T00260023  RH  098%=      5-min Rain = 0
KVA1 081011Z 01009KT 03/02 A302 RMK A01 T00260023  RH  098%=      5-min Rain = 0
KVA1 081012Z 01008KT 03/02 A302 RMK A01 T00260023  RH  098%=      5-min Rain = 0
KVA1 081013Z 02009KT 03/02 A302 RMK A01 T00260023  RH  098%=      5-min Rain = 0
KVA1 081014Z 02010KT 03/02 A302 RMK A01 T00260023  RH  098%=      5-min Rain = 0
KVA1 081015Z 02010KT 03/02 A302 RMK A01 T00260023  RH  098%=      5-min Rain = 0
KVA1 081016Z 02010KT 03/02 A302 RMK A01 T00260023  RH  098%=      5-min Rain = 0
KVA1 081017Z 02010KT 03/02 A3021 RMK A01 T00260023  RH  098%=      5-min Rain = 0
KVA1 081018Z 02010KT 03/02 A3021 RMK A01 T00260023  RH  098%=      5-min Rain = 0
KVA1 081019Z 01007KT 03/02 A3021 RMK A01 T00260023  RH  098%=      5-min Rain = 0
KVA1 081020Z 01009KT 03/02 A3021 RMK A01 T00260023  RH  098%=      5-min Rain = 0
KVA1 081021Z 01009KT 03/02 A302 RMK A01 T00260023  RH  098%=      5-min Rain = 0
KVA1 081022Z 02008KT 03/02 A302 RMK A01 T00260022  RH  098%=      5-min Rain = 0
KVA1 081023Z 02009KT 03/02 A302 RMK A01 T00260023  RH  098%=      5-min Rain = 0
KVA1 081024Z 02010KT 03/02 A302 RMK A01 T00260022  RH  098%=      5-min Rain = 0
KVA1 081025Z 01007KT 03/02 A302 RMK A01 T00260022  RH  098%=      5-min Rain = 0
KVA1 081026Z 02008KT 03/02 A302 RMK A01 T00260022  RH  098%=      5-min Rain = 0
KVA1 081027Z 02010KT 03/02 A302 RMK A01 T00260023  RH  098%=      5-min Rain = 0
KVA1 081028Z 02008KT 03/02 A302 RMK A01 T00260022  RH  098%=      5-min Rain = 0
KVA1 081029Z 02011KT 03/02 A302 RMK A01 T00260022  RH  098%=      5-min Rain = 0
KVA1 081030Z 02010KT 03/02 A302 RMK A01 T00260022  RH  098%=      5-min Rain = 0
KVA1 081031Z 01009KT 03/02 A302 RMK A01 T00260022  RH  098%=      5-min Rain = 0
KVA1 081032Z 02011KT 03/02 A302 RMK A01 T00260022  RH  098%=      5-min Rain = 0
KVA1 081033Z 02010KT 03/02 A302 RMK A01 T00260022  RH  098%=      5-min Rain = 0
KVA1 081034Z 02009KT 03/02 A3021 RMK A01 T00260022  RH  097%=      5-min Rain = 0
KVA1 081035Z 02009KT 03/02 A3021 RMK A01 T00260022  RH  097%=      5-min Rain = 0
KVA1 081036Z 02009KT 03/02 A3021 RMK A01 T00260022  RH  097%=      5-min Rain = 0
KVA1 081037Z 02010KT 03/02 A3021 RMK A01 T00260022  RH  097%=      5-min Rain = 0
KVA1 081038Z 02009KT 03/02 A3021 RMK A01 T00260022  RH  097%=      5-min Rain = 0
KVA1 081039Z 02009KT 03/02 A3021 RMK A01 T00260022  RH  097%=      5-min Rain = 0
KVA1 081040Z 01008KT 03/02 A3021 RMK A01 T00260022  RH  097%=      5-min Rain = 0
KVA1 081041Z 02009KT 03/02 A3021 RMK A01 T00260022  RH  097%=      5-min Rain = 0
KVA1 081042Z 01008KT 03/02 A3021 RMK A01 T00260022  RH  097%=      5-min Rain = 0
KVA1 081043Z 01007KT 03/02 A3021 RMK A01 T00260022  RH  097%=      5-min Rain = 0
KVA1 081044Z 01010KT 03/02 A3021 RMK A01 T00260022  RH  097%=      5-min Rain = 0
KVA1 081045Z 02007KT 03/02 A3021 RMK A01 T00260022  RH  097%=      5-min Rain = 0
KVA1 081046Z 02008KT 03/02 A3021 RMK A01 T00260022  RH  097%=      5-min Rain = 0
KVA1 081047Z 02008KT 03/02 A3021 RMK A01 T00260022  RH  097%=      5-min Rain = 0
KVA1 081048Z 02009KT 03/02 A3021 RMK A01 T00260022  RH  097%=      5-min Rain = 0
KVA1 081049Z 02009KT 03/02 A3021 RMK A01 T00260022  RH  097%=      5-min Rain = 0
KVA1 081050Z 02009KT 03/02 A3021 RMK A01 T00260022  RH  097%=      5-min Rain = 0
KVA1 081051Z 01010KT 03/02 A3021 RMK A01 T00260022  RH  097%=      5-min Rain = 0
KVA1 081052Z 01009KT 03/02 A3021 RMK A01 T00260022  RH  097%=      5-min Rain = 0
KVA1 081053Z 01008KT 03/02 A3021 RMK A01 T00260022  RH  097%=      5-min Rain = 0
KVA1 081054Z 01008KT 03/02 A3021 RMK A01 T00260022  RH  097%=      5-min Rain = 0
KVA1 081055Z 01010KT 03/02 A3021 RMK A01 T00260022  RH  097%=      5-min Rain = 0
KVA1 081056Z 01007KT 03/02 A3021 RMK A01 T00260022  RH  097%=      5-min Rain = 0
KVA1 081057Z 01010KT 03/02 A3021 RMK A01 T00260022  RH  097%=      5-min Rain = 0
KVA1 081058Z 01008KT 03/02 A3021 RMK A01 T00260022  RH  097%=      5-min Rain = 0
KVA1 081059Z 01008KT 03/02 A3021 RMK A01 T00260022  RH  097%=      5-min Rain = 0
KVA1 081100Z 01008KT 03/02 A3021 RMK A01 T00260022  RH  097%=      5-min Rain = 0
KVA1 081101Z 01010KT 03/02 A3021 RMK A01 T00260022  RH  097%=      5-min Rain = 0
KVA1 081102Z 02009KT 03/02 A3021 RMK A01 T00260022  RH  097%=      5-min Rain = 0
KVA1 081103Z 01010KT 03/02 A3021 RMK A01 T00260022  RH  097%=      5-min Rain = 0
KVA1 081104Z 01009KT 03/02 A3021 RMK A01 T00260022  RH  097%=      5-min Rain = 0
KVA1 081105Z 00010KT 03/02 A3021 RMK A01 T00260022  RH  097%=      5-min Rain = 0
KVA1 081106Z 01010KT 03/02 A3021 RMK A01 T00260022  RH  097%=      5-min Rain = 0
KVA1 081107Z 01009KT 03/02 A3021 RMK A01 T00260022  RH  097%=      5-min Rain = 0
KVA1 081108Z 01009KT 03/02 A3021 RMK A01 T00260022  RH  097%=      5-min Rain = 0
KVA1 081109Z 01010KT 03/02 A3021 RMK A01 T00260022  RH  097%=      5-min Rain = 0
KVA1 081110Z 01010KT 03/02 A3021 RMK A01 T00260022  RH  097%=      5-min Rain = 0
KVA1 081111Z 01009KT 03/02 A3021 RMK A01 T00260022  RH  097%=      5-min Rain = 0
KVA1 081112Z 01007KT 03/02 A3021 RMK A01 T00260022  RH  097%=      5-min Rain = 0
KVA1 081113Z 01007KT 03/02 A3021 RMK A01 T00260022  RH  097%=      5-min Rain = 0
KVA1 081114Z 01008KT 03/02 A3021 RMK A01 T00260022  RH  097%=      5-min Rain = 0
KVA1 081115Z 00008KT 03/02 A3021 RMK A01 T00260022  RH  097%=      5-min Rain = 0
KVA1 081116Z 01010KT 03/02 A3022 RMK A01 T00260022  RH  097%=      5-min Rain = 0
KVA1 081117Z 01009KT 03/02 A3021 RMK A01 T00260022  RH  097%=      5-min Rain = 0
KVA1 081118Z 01008KT 03/02 A3021 RMK A01 T00260022  RH  097%=      5-min Rain = 0
KVA1 081119Z 01009KT 03/02 A3021 RMK A01 T00260022  RH  097%=      5-min Rain = 0
KVA1 081120Z 02011KT 03/02 A3022 RMK A01 T00260022  RH  097%=      5-min Rain = 0
KVA1 081121Z 01009KT 03/02 A3022 RMK A01 T00260022  RH  097%=      5-min Rain = 0
KVA1 081122Z 02009KT 03/02 A3022 RMK A01 T00260022  RH  097%=      5-min Rain = 0
KVA1 081123Z 02009KT 03/02 A3022 RMK A01 T00260022  RH  097%=      5-min Rain = 0
KVA1 081124Z 01009KT 03/02 A3022 RMK A01 T00260022  RH  097%=      5-min Rain = 0
KVA1 081125Z 02009KT 03/02 A3022 RMK A01 T00260022  RH  097%=      5-min Rain = 0
KVA1 081126Z 02008KT 03/02 A3022 RMK A01 T00260022  RH  097%=      5-min Rain = 0
KVA1 081127Z 02009KT 03/02 A3022 RMK A01 T00260022  RH  098%=      5-min Rain = 0
KVA1 081128Z 02009KT 03/02 A3022 RMK A01 T00260022  RH  098%=      5-min Rain = 0
KVA1 081129Z 02009KT 03/02 A3022 RMK A01 T00260022  RH  098%=      5-min Rain = 0.01
KVA1 081130Z 02010KT 03/02 A3022 RMK A01 T00260022  RH  098%=      5-min Rain = 0
KVA1 081131Z 02007KT 03/02 A3022 RMK A01 T00260022  RH  098%=      5-min Rain = 0
KVA1 081132Z 02009KT 03/02 A3022 RMK A01 T00260022  RH  098%=      5-min Rain = 0
KVA1 081133Z 02009KT 03/02 A3022 RMK A01 T00260022  RH  098%=      5-min Rain = 0
KVA1 081134Z 02010KT 03/02 A3022 RMK A01 T00260022  RH  098%=      5-min Rain = 0
KVA1 081135Z 02010KT 03/02 A3022 RMK A01 T00260022  RH  098%=      5-min Rain = 0
KVA1 081136Z 03009KT 03/02 A3022 RMK A01 T00260023  RH  098%=      5-min Rain = 0
KVA1 081137Z 02008KT 03/02 A3022 RMK A01 T00260023  RH  098%=      5-min Rain = 0
KVA1 081138Z 02007KT 03/02 A3023 RMK A01 T00260023  RH  098%=      5-min Rain = 0
KVA1 081139Z 02007KT 03/02 A3023 RMK A01 T00260023  RH  098%=      5-min Rain = 0
KVA1 081140Z 02007KT 03/02 A3023 RMK A01 T00260023  RH  098%=      5-min Rain = 0
KVA1 081141Z 02006KT 03/02 A3023 RMK A01 T00260023  RH  098%=      5-min Rain = 0
KVA1 081142Z 02006KT 03/02 A3023 RMK A01 T00260023  RH  098%=      5-min Rain = 0
KVA1 081143Z 03008KT 03/02 A3023 RMK A01 T00260024  RH  098%=      5-min Rain = 0
KVA1 081144Z 03008KT 03/02 A3023 RMK A01 T00260023  RH  098%=      5-min Rain = 0
KVA1 081145Z 03008KT 03/02 A3023 RMK A01 T00260023  RH  098%=      5-min Rain = 0
KVA1 081146Z 02008KT 03/02 A3023 RMK A01 T00260023  RH  098%=      5-min Rain = 0
KVA1 081147Z 03007KT 03/02 A3023 RMK A01 T00260023  RH  098%=      5-min Rain = 0
KVA1 081148Z 03008KT 03/02 A3023 RMK A01 T00260023  RH  098%=      5-min Rain = 0
KVA1 081149Z 03008KT 03/02 A3023 RMK A01 T00260023  RH  098%=      5-min Rain = 0
KVA1 081150Z 03009KT 03/02 A3023 RMK A01 T00260023  RH  098%=      5-min Rain = 0
KVA1 081151Z 03010KT 03/02 A3023 RMK A01 T00260023  RH  098%=      5-min Rain = 0
KVA1 081152Z 03009KT 03/02 A3023 RMK A01 T00250022  RH  098%=      5-min Rain = 0
KVA1 081153Z 03007KT 03/02 A3023 RMK A01 T00250022  RH  098%=      5-min Rain = 0
KVA1 081154Z 03010KT 03/02 A3023 RMK A01 T00250022  RH  098%=      5-min Rain = 0
KVA1 081155Z 03007KT 03/02 A3023 RMK A01 T00250022  RH  098%=      5-min Rain = 0
KVA1 081156Z 02009KT 03/02 A3023 RMK A01 T00250022  RH  098%=      5-min Rain = 0
KVA1 081157Z 03007KT 03/02 A3023 RMK A01 T00250022  RH  098%=      5-min Rain = 0
KVA1 081158Z 03009KT 03/02 A3023 RMK A01 T00250022  RH  098%=      5-min Rain = 0
KVA1 081159Z 03007KT 03/02 A3023 RMK A01 T00250022  RH  098%=      5-min Rain = 0
KVA1 081200Z 03010KT 03/02 A3023 RMK A01 T00250022  RH  098%=      5-min Rain = 0
KVA1 081201Z 03010KT 02/02 A3023 RMK A01 T00240021  RH  098%=      5-min Rain = 0
KVA1 081202Z 03009KT 02/02 A3023 RMK A01 T00240021  RH  098%=      5-min Rain = 0
KVA1 081203Z 03008KT 02/02 A3023 RMK A01 T00240021  RH  098%=      5-min Rain = 0
KVA1 081204Z 03009KT 02/02 A3023 RMK A01 T00240021  RH  098%=      5-min Rain = 0
KVA1 081205Z 03009KT 02/02 A3023 RMK A01 T00240021  RH  098%=      5-min Rain = 0
KVA1 081206Z 03009KT 02/02 A3023 RMK A01 T00240020  RH  097%=      5-min Rain = 0
KVA1 081207Z 03010KT 02/02 A3024 RMK A01 T00240020  RH  097%=      5-min Rain = 0
KVA1 081208Z 03009KT 02/02 A3024 RMK A01 T00230019  RH  097%=      5-min Rain = 0
KVA1 081209Z 03009KT 02/02 A3024 RMK A01 T00230019  RH  097%=      5-min Rain = 0
KVA1 081210Z 03008KT 02/02 A3024 RMK A01 T00230019  RH  097%=      5-min Rain = 0
KVA1 081211Z 03008KT 02/02 A3024 RMK A01 T00230019  RH  097%=      5-min Rain = 0
KVA1 081212Z 03011KT 02/02 A3024 RMK A01 T00240019  RH  097%=      5-min Rain = 0
KVA1 081213Z 03009KT 02/02 A3024 RMK A01 T00230019  RH  097%=      5-min Rain = 0
KVA1 081214Z 03008KT 02/02 A3024 RMK A01 T00230019  RH  097%=      5-min Rain = 0
KVA1 081215Z 03007KT 02/02 A3024 RMK A01 T00240019  RH  097%=      5-min Rain = 0
KVA1 081216Z 03008KT 02/02 A3024 RMK A01 T00240019  RH  097%=      5-min Rain = 0
KVA1 081217Z 03010KT 02/02 A3024 RMK A01 T00240019  RH  097%=      5-min Rain = 0
KVA1 081218Z 03009KT 02/02 A3024 RMK A01 T00240019  RH  097%=      5-min Rain = 0
KVA1 081219Z 03010KT 02/02 A3024 RMK A01 T00240019  RH  097%=      5-min Rain = 0
KVA1 081220Z 03008KT 02/02 A3024 RMK A01 T00240019  RH  097%=      5-min Rain = 0
KVA1 081221Z 03009KT 02/02 A3024 RMK A01 T00230019  RH  097%=      5-min Rain = 0
KVA1 081222Z 03011KT 02/02 A3024 RMK A01 T00240019  RH  097%=      5-min Rain = 0
KVA1 081223Z 03008KT 02/02 A3024 RMK A01 T00230018  RH  097%=      5-min Rain = 0
KVA1 081224Z 03009KT 02/02 A3024 RMK A01 T00230019  RH  097%=      5-min Rain = 0
KVA1 081225Z 03011KT 02/02 A3024 RMK A01 T00230018  RH  097%=      5-min Rain = 0
KVA1 081226Z 03010KT 02/02 A3024 RMK A01 T00230018  RH  096%=      5-min Rain = 0
KVA1 081227Z 02009KT 02/02 A3024 RMK A01 T00230018  RH  096%=      5-min Rain = 0
KVA1 081228Z 03008KT 02/02 A3024 RMK A01 T00230018  RH  096%=      5-min Rain = 0
KVA1 081229Z 03009KT 02/02 A3024 RMK A01 T00230018  RH  096%=      5-min Rain = 0
KVA1 081230Z 03010KT 02/02 A3024 RMK A01 T00230018  RH  096%=      5-min Rain = 0
KVA1 081231Z 03009KT 02/02 A3024 RMK A01 T00230018  RH  096%=      5-min Rain = 0
KVA1 081232Z 03010KT 02/02 A3024 RMK A01 T00230018  RH  096%=      5-min Rain = 0
KVA1 081233Z 03009KT 02/02 A3024 RMK A01 T00230017  RH  096%=      5-min Rain = 0
KVA1 081234Z 03008KT 02/02 A3024 RMK A01 T00230017  RH  096%=      5-min Rain = 0
KVA1 081235Z 03010KT 02/02 A3024 RMK A01 T00230017  RH  096%=      5-min Rain = 0
KVA1 081236Z 03010KT 02/02 A3024 RMK A01 T00230017  RH  096%=      5-min Rain = 0
KVA1 081237Z 03009KT 02/02 A3024 RMK A01 T00230017  RH  096%=      5-min Rain = 0
KVA1 081238Z 03009KT 02/02 A3024 RMK A01 T00230017  RH  096%=      5-min Rain = 0
KVA1 081239Z 03008KT 02/02 A3024 RMK A01 T00230017  RH  096%=      5-min Rain = 0
KVA1 081240Z 03008KT 02/02 A3024 RMK A01 T00230017  RH  096%=      5-min Rain = 0
KVA1 081241Z 03008KT 02/02 A3024 RMK A01 T00230017  RH  096%=      5-min Rain = 0
KVA1 081242Z 03010KT 02/02 A3024 RMK A01 T00230018  RH  096%=      5-min Rain = 0
KVA1 081243Z 04008KT 02/02 A3024 RMK A01 T00230017  RH  096%=      5-min Rain = 0
KVA1 081244Z 04011KT 02/02 A3024 RMK A01 T00230017  RH  096%=      5-min Rain = 0
KVA1 081245Z 03010KT 02/02 A3024 RMK A01 T00220017  RH  096%=      5-min Rain = 0
KVA1 081246Z 04010KT 02/02 A3024 RMK A01 T00230017  RH  096%=      5-min Rain = 0
KVA1 081247Z 04009KT 02/02 A3024 RMK A01 T00230017  RH  096%=      5-min Rain = 0
KVA1 081248Z 04009KT 02/02 A3024 RMK A01 T00230017  RH  096%=      5-min Rain = 0
KVA1 081249Z 04009KT 02/02 A3025 RMK A01 T00220017  RH  096%=      5-min Rain = 0
KVA1 081250Z 04010KT 02/02 A3025 RMK A01 T00230017  RH  096%=      5-min Rain = 0
KVA1 081251Z 04010KT 02/02 A3025 RMK A01 T00220016  RH  096%=      5-min Rain = 0
KVA1 081252Z 04009KT 02/02 A3025 RMK A01 T00220016  RH  096%=      5-min Rain = 0
KVA1 081253Z 04009KT 02/02 A3025 RMK A01 T00220017  RH  096%=      5-min Rain = 0
KVA1 081254Z 03010KT 02/02 A3025 RMK A01 T00220017  RH  096%=      5-min Rain = 0
KVA1 081255Z 04010KT 02/02 A3025 RMK A01 T00220017  RH  096%=      5-min Rain = 0
KVA1 081256Z 04010KT 02/02 A3025 RMK A01 T00220016  RH  096%=      5-min Rain = 0
KVA1 081257Z 04009KT 02/02 A3025 RMK A01 T00220016  RH  096%=      5-min Rain = 0
KVA1 081258Z 04009KT 02/02 A3025 RMK A01 T00220016  RH  096%=      5-min Rain = 0
KVA1 081259Z 04008KT 02/02 A3025 RMK A01 T00220016  RH  096%=      5-min Rain = 0
KVA1 081300Z 04010KT 02/02 A3025 RMK A01 T00220017  RH  096%=      5-min Rain = 0
KVA1 081301Z 04009KT 02/02 A3025 RMK A01 T00220016  RH  096%=      5-min Rain = 0
KVA1 081302Z 04008KT 02/02 A3025 RMK A01 T00220016  RH  096%=      5-min Rain = 0
KVA1 081303Z 04008KT 02/02 A3025 RMK A01 T00220016  RH  096%=      5-min Rain = 0
KVA1 081304Z 03009KT 02/02 A3025 RMK A01 T00220016  RH  096%=      5-min Rain = 0
KVA1 081305Z 04009KT 02/02 A3025 RMK A01 T00210016  RH  096%=      5-min Rain = 0
KVA1 081306Z 03008KT 02/02 A3025 RMK A01 T00220016  RH  096%=      5-min Rain = 0
KVA1 081307Z 03009KT 02/02 A3025 RMK A01 T00220016  RH  096%=      5-min Rain = 0
KVA1 081308Z 04009KT 02/02 A3025 RMK A01 T00220016  RH  096%=      5-min Rain = 0
KVA1 081309Z 04009KT 02/02 A3025 RMK A01 T00220016  RH  096%=      5-min Rain = 0
KVA1 081310Z 03009KT 02/02 A3025 RMK A01 T00210015  RH  096%=      5-min Rain = 0
KVA1 081311Z 04008KT 02/02 A3025 RMK A01 T00220016  RH  096%=      5-min Rain = 0
KVA1 081312Z 04009KT 02/02 A3025 RMK A01 T00220016  RH  096%=      5-min Rain = 0
KVA1 081313Z 04007KT 02/02 A3025 RMK A01 T00220016  RH  096%=      5-min Rain = 0
KVA1 081314Z 04008KT 02/02 A3025 RMK A01 T00220016  RH  096%=      5-min Rain = 0
KVA1 081315Z 03009KT 02/02 A3026 RMK A01 T00220016  RH  096%=      5-min Rain = 0
KVA1 081316Z 03009KT 02/02 A3026 RMK A01 T00220015  RH  096%=      5-min Rain = 0
KVA1 081317Z 03008KT 02/02 A3026 RMK A01 T00220015  RH  096%=      5-min Rain = 0
KVA1 081318Z 03010KT 02/02 A3026 RMK A01 T00210015  RH  096%=      5-min Rain = 0
KVA1 081319Z 03010KT 02/02 A3026 RMK A01 T00220015  RH  095%=      5-min Rain = 0
KVA1 081320Z 03008KT 02/02 A3026 RMK A01 T00220015  RH  095%=      5-min Rain = 0
KVA1 081321Z 03007KT 02/02 A3026 RMK A01 T00210015  RH  095%=      5-min Rain = 0
KVA1 081322Z 04007KT 02/02 A3026 RMK A01 T00220015  RH  096%=      5-min Rain = 0
KVA1 081323Z 04007KT 02/02 A3026 RMK A01 T00220015  RH  096%=      5-min Rain = 0
KVA1 081324Z 03007KT 02/02 A3026 RMK A01 T00220016  RH  096%=      5-min Rain = 0
KVA1 081325Z 03007KT 02/02 A3026 RMK A01 T00220015  RH  096%=      5-min Rain = 0
KVA1 081326Z 04008KT 02/02 A3026 RMK A01 T00220015  RH  096%=      5-min Rain = 0
KVA1 081327Z 04008KT 02/02 A3026 RMK A01 T00210015  RH  096%=      5-min Rain = 0
KVA1 081328Z 03008KT 02/02 A3026 RMK A01 T00220016  RH  096%=      5-min Rain = 0
KVA1 081329Z 04006KT 02/02 A3026 RMK A01 T00220016  RH  096%=      5-min Rain = 0
KVA1 081330Z 04006KT 02/02 A3026 RMK A01 T00220016  RH  096%=      5-min Rain = 0
KVA1 081331Z 04008KT 02/02 A3026 RMK A01 T00220016  RH  096%=      5-min Rain = 0
KVA1 081332Z 04008KT 02/02 A3026 RMK A01 T00210016  RH  096%=      5-min Rain = 0
KVA1 081333Z 04008KT 02/02 A3026 RMK A01 T00220016  RH  096%=      5-min Rain = 0
KVA1 081334Z 04010KT 02/02 A3026 RMK A01 T00220015  RH  096%=      5-min Rain = 0
KVA1 081335Z 04010KT 02/02 A3026 RMK A01 T00210015  RH  095%=      5-min Rain = 0
KVA1 081336Z 03009G14KT 02/01 A3026 RMK A01 T00210014  RH  095%=      5-min Rain = 0
KVA1 081337Z 04011KT 02/01 A3026 RMK A01 T00210014  RH  095%=      5-min Rain = 0
KVA1 081338Z 04009KT 02/01 A3026 RMK A01 T00210014  RH  095%=      5-min Rain = 0
KVA1 081339Z 04009KT 02/01 A3026 RMK A01 T00210014  RH  095%=      5-min Rain = 0
KVA1 081340Z 04009KT 02/01 A3026 RMK A01 T00210014  RH  095%=      5-min Rain = 0
KVA1 081341Z 04010KT 02/01 A3026 RMK A01 T00210014  RH  095%=      5-min Rain = 0
KVA1 081342Z 04010KT 02/01 A3026 RMK A01 T00210014  RH  095%=      5-min Rain = 0
KVA1 081343Z 03011KT 02/01 A3027 RMK A01 T00210014  RH  095%=      5-min Rain = 0
KVA1 081344Z 03009KT 02/01 A3027 RMK A01 T00210013  RH  095%=      5-min Rain = 0
KVA1 081345Z 03009KT 02/01 A3027 RMK A01 T00210013  RH  095%=      5-min Rain = 0
KVA1 081346Z 03010KT 02/01 A3027 RMK A01 T00210013  RH  095%=      5-min Rain = 0
KVA1 081347Z 03009KT 02/01 A3027 RMK A01 T00210013  RH  095%=      5-min Rain = 0
KVA1 081348Z 04009KT 02/01 A3027 RMK A01 T00210013  RH  095%=      5-min Rain = 0
KVA1 081349Z 03008KT 02/01 A3027 RMK A01 T00210013  RH  095%=      5-min Rain = 0
KVA1 081350Z 03009KT 02/01 A3027 RMK A01 T00210013  RH  095%=      5-min Rain = 0
KVA1 081351Z 03010KT 02/01 A3027 RMK A01 T00210013  RH  095%=      5-min Rain = 0
KVA1 081352Z 03008KT 02/01 A3027 RMK A01 T00210013  RH  095%=      5-min Rain = 0
KVA1 081353Z 04007KT 02/01 A3027 RMK A01 T00210013  RH  095%=      5-min Rain = 0
KVA1 081354Z 03008KT 02/01 A3027 RMK A01 T00210013  RH  095%=      5-min Rain = 0
KVA1 081355Z 04008KT 02/01 A3027 RMK A01 T00210013  RH  095%=      5-min Rain = 0
KVA1 081356Z 04009KT 02/01 A3027 RMK A01 T00210013  RH  095%=      5-min Rain = 0
KVA1 081357Z 04009KT 02/01 A3027 RMK A01 T00210013  RH  095%=      5-min Rain = 0
KVA1 081358Z 04009KT 02/01 A3027 RMK A01 T00210013  RH  095%=      5-min Rain = 0
KVA1 081359Z 03010KT 02/01 A3027 RMK A01 T00210013  RH  095%=      5-min Rain = 0
KVA1 081400Z 03008KT 02/01 A3027 RMK A01 T00210013  RH  094%=      5-min Rain = 0
KVA1 081401Z 04007KT 02/01 A3028 RMK A01 T00210013  RH  094%=      5-min Rain = 0
KVA1 081402Z 03007KT 02/01 A3028 RMK A01 T00210013  RH  095%=      5-min Rain = 0
KVA1 081403Z 03009KT 02/01 A3028 RMK A01 T00210014  RH  095%=      5-min Rain = 0
KVA1 081404Z 03009KT 02/01 A3028 RMK A01 T00210013  RH  095%=      5-min Rain = 0
KVA1 081405Z 03007KT 02/01 A3028 RMK A01 T00210014  RH  095%=      5-min Rain = 0
KVA1 081406Z 04007KT 02/01 A3028 RMK A01 T00210013  RH  095%=      5-min Rain = 0
KVA1 081407Z 03007KT 02/01 A3028 RMK A01 T00210013  RH  095%=      5-min Rain = 0
KVA1 081408Z 03008KT 02/01 A3028 RMK A01 T00210013  RH  095%=      5-min Rain = 0
KVA1 081409Z 03008KT 02/01 A3028 RMK A01 T00210013  RH  095%=      5-min Rain = 0
KVA1 081410Z 03007KT 02/01 A3028 RMK A01 T00210013  RH  095%=      5-min Rain = 0
KVA1 081411Z 04006KT 02/01 A3028 RMK A01 T00210014  RH  095%=      5-min Rain = 0
KVA1 081412Z 03006KT 02/01 A3028 RMK A01 T00210014  RH  095%=      5-min Rain = 0
KVA1 081413Z 03007KT 02/01 A3028 RMK A01 T00210014  RH  095%=      5-min Rain = 0
KVA1 081414Z 03008KT 02/01 A3028 RMK A01 T00210014  RH  095%=      5-min Rain = 0
KVA1 081415Z 03007KT 02/01 A3029 RMK A01 T00210014  RH  095%=      5-min Rain = 0
KVA1 081416Z 03007KT 02/01 A3029 RMK A01 T00210014  RH  095%=      5-min Rain = 0
KVA1 081417Z 03008KT 02/01 A3029 RMK A01 T00210014  RH  095%=      5-min Rain = 0
KVA1 081418Z 03007KT 02/01 A3029 RMK A01 T00210014  RH  095%=      5-min Rain = 0
KVA1 081419Z 03008KT 02/01 A3029 RMK A01 T00210014  RH  095%=      5-min Rain = 0
KVA1 081420Z 03008KT 02/01 A3029 RMK A01 T00210014  RH  095%=      5-min Rain = 0
KVA1 081421Z 04008KT 02/01 A3029 RMK A01 T00210013  RH  094%=      5-min Rain = 0
KVA1 081422Z 03007KT 02/01 A3029 RMK A01 T00210013  RH  094%=      5-min Rain = 0
KVA1 081423Z 03008KT 02/01 A3029 RMK A01 T00210013  RH  094%=      5-min Rain = 0
KVA1 081424Z 03009KT 02/01 A3029 RMK A01 T00210012  RH  094%=      5-min Rain = 0
KVA1 081425Z 04007KT 02/01 A3029 RMK A01 T00210012  RH  094%=      5-min Rain = 0
KVA1 081426Z 03008KT 02/01 A3029 RMK A01 T00210012  RH  094%=      5-min Rain = 0
KVA1 081427Z 04009KT 02/01 A3029 RMK A01 T00210012  RH  094%=      5-min Rain = 0
KVA1 081428Z 03008KT 02/01 A3029 RMK A01 T00210012  RH  093%=      5-min Rain = 0
KVA1 081429Z 04009KT 02/01 A303 RMK A01 T00210011  RH  093%=      5-min Rain = 0
KVA1 081430Z 03009KT 02/01 A303 RMK A01 T00210011  RH  093%=      5-min Rain = 0
KVA1 081431Z 03008KT 02/01 A303 RMK A01 T00210011  RH  093%=      5-min Rain = 0
KVA1 081432Z 03008KT 02/01 A303 RMK A01 T00210011  RH  093%=      5-min Rain = 0
KVA1 081433Z 03009KT 02/01 A303 RMK A01 T00210011  RH  093%=      5-min Rain = 0
KVA1 081434Z 03007KT 02/01 A303 RMK A01 T00210010  RH  093%=      5-min Rain = 0
KVA1 081435Z 03007KT 02/01 A303 RMK A01 T00210011  RH  093%=      5-min Rain = 0
KVA1 081436Z 04008KT 02/01 A303 RMK A01 T00210011  RH  093%=      5-min Rain = 0
KVA1 081437Z 04008KT 02/01 A303 RMK A01 T00210011  RH  093%=      5-min Rain = 0
KVA1 081438Z 03009KT 02/01 A303 RMK A01 T00210011  RH  093%=      5-min Rain = 0
KVA1 081439Z 04009KT 02/01 A303 RMK A01 T00210011  RH  093%=      5-min Rain = 0
KVA1 081440Z 04007KT 02/01 A303 RMK A01 T00210010  RH  093%=      5-min Rain = 0
KVA1 081441Z 04008KT 02/01 A303 RMK A01 T00210010  RH  093%=      5-min Rain = 0
KVA1 081442Z 03007KT 02/01 A303 RMK A01 T00210011  RH  093%=      5-min Rain = 0
KVA1 081443Z 03009KT 02/01 A303 RMK A01 T00210010  RH  093%=      5-min Rain = 0
KVA1 081444Z 04009KT 02/01 A303 RMK A01 T00210010  RH  092%=      5-min Rain = 0
KVA1 081445Z 04009KT 02/01 A303 RMK A01 T00210010  RH  092%=      5-min Rain = 0
KVA1 081446Z 04008KT 02/01 A303 RMK A01 T00210010  RH  092%=      5-min Rain = 0
KVA1 081447Z 03007KT 02/01 A303 RMK A01 T00220011  RH  093%=      5-min Rain = 0
KVA1 081448Z 03008KT 02/01 A3031 RMK A01 T00210011  RH  093%=      5-min Rain = 0
KVA1 081449Z 04009KT 02/01 A3031 RMK A01 T00220011  RH  093%=      5-min Rain = 0
KVA1 081450Z 04009KT 02/01 A3031 RMK A01 T00220011  RH  093%=      5-min Rain = 0
KVA1 081451Z 04009KT 02/01 A3031 RMK A01 T00210010  RH  093%=      5-min Rain = 0
KVA1 081452Z 04008KT 02/01 A3031 RMK A01 T00210010  RH  093%=      5-min Rain = 0
KVA1 081453Z 04009KT 02/01 A3031 RMK A01 T00210010  RH  093%=      5-min Rain = 0
KVA1 081454Z 04009KT 02/01 A3031 RMK A01 T00210010  RH  092%=      5-min Rain = 0
KVA1 081455Z 04008KT 02/01 A3031 RMK A01 T00210010  RH  092%=      5-min Rain = 0
KVA1 081456Z 04007KT 02/01 A3031 RMK A01 T00210010  RH  093%=      5-min Rain = 0
KVA1 081457Z 03007KT 02/01 A3031 RMK A01 T00220011  RH  093%=      5-min Rain = 0
KVA1 081458Z 04008KT 02/01 A3031 RMK A01 T00220012  RH  093%=      5-min Rain = 0
KVA1 081459Z 04006KT 02/01 A3031 RMK A01 T00220011  RH  093%=      5-min Rain = 0
KVA1 081500Z 04006KT 02/01 A3031 RMK A01 T00220012  RH  093%=      5-min Rain = 0
KVA1 081501Z 04006KT 02/01 A3031 RMK A01 T00220012  RH  093%=      5-min Rain = 0
KVA1 081502Z 04007KT 02/01 A3031 RMK A01 T00220012  RH  093%=      5-min Rain = 0
KVA1 081503Z 04008KT 02/01 A3031 RMK A01 T00220011  RH  093%=      5-min Rain = 0
KVA1 081504Z 04008KT 02/01 A3031 RMK A01 T00220011  RH  092%=      5-min Rain = 0
KVA1 081505Z 04008KT 02/01 A3031 RMK A01 T00220011  RH  092%=      5-min Rain = 0
KVA1 081506Z 04008KT 02/01 A3031 RMK A01 T00220011  RH  092%=      5-min Rain = 0
KVA1 081507Z 04009KT 02/01 A3031 RMK A01 T00220011  RH  092%=      5-min Rain = 0
KVA1 081508Z 04009KT 02/01 A3031 RMK A01 T00230010  RH  092%=      5-min Rain = 0
KVA1 081509Z 04007KT 02/01 A3031 RMK A01 T00220010  RH  091%=      5-min Rain = 0
KVA1 081510Z 04008KT 02/01 A3031 RMK A01 T00220010  RH  092%=      5-min Rain = 0
KVA1 081511Z 04008KT 02/01 A3031 RMK A01 T00220010  RH  092%=      5-min Rain = 0
KVA1 081512Z 03009KT 02/01 A3031 RMK A01 T00220009  RH  091%=      5-min Rain = 0
KVA1 081513Z 04008KT 02/01 A3031 RMK A01 T00230010  RH  091%=      5-min Rain = 0
KVA1 081514Z 04007KT 02/01 A3031 RMK A01 T00230010  RH  091%=      5-min Rain = 0
KVA1 081515Z 03006KT 02/01 A3031 RMK A01 T00230011  RH  091%=      5-min Rain = 0
KVA1 081516Z 03007KT 02/01 A3031 RMK A01 T00240012  RH  092%=      5-min Rain = 0
KVA1 081517Z 03007KT 02/01 A3031 RMK A01 T00240013  RH  092%=      5-min Rain = 0
KVA1 081518Z 04008KT 03/01 A3031 RMK A01 T00250013  RH  092%=      5-min Rain = 0
KVA1 081519Z 03008KT 03/01 A3031 RMK A01 T00250012  RH  091%=      5-min Rain = 0
KVA1 081520Z 03008KT 03/01 A3031 RMK A01 T00250011  RH  090%=      5-min Rain = 0
KVA1 081521Z 03008KT 03/01 A3031 RMK A01 T00250010  RH  090%=      5-min Rain = 0
KVA1 081522Z 03008KT 03/01 A3031 RMK A01 T00250011  RH  091%=      5-min Rain = 0
KVA1 081523Z 03009KT 03/01 A3031 RMK A01 T00250011  RH  090%=      5-min Rain = 0
KVA1 081524Z 03009KT 03/01 A3031 RMK A01 T00250010  RH  090%=      5-min Rain = 0
KVA1 081525Z 03007KT 03/01 A3031 RMK A01 T00250010  RH  090%=      5-min Rain = 0
KVA1 081526Z 04009KT 03/01 A3031 RMK A01 T00260011  RH  090%=      5-min Rain = 0
KVA1 081527Z 04008KT 03/01 A3031 RMK A01 T00260011  RH  090%=      5-min Rain = 0
KVA1 081528Z 04008KT 03/01 A3031 RMK A01 T00270012  RH  090%=      5-min Rain = 0
KVA1 081529Z 04006KT 03/01 A3031 RMK A01 T00270012  RH  090%=      5-min Rain = 0
KVA1 081530Z 04008KT 03/01 A3031 RMK A01 T00280013  RH  090%=      5-min Rain = 0
KVA1 081531Z 04006KT 03/01 A3031 RMK A01 T00280012  RH  089%=      5-min Rain = 0
KVA1 081532Z 03008KT 03/01 A3031 RMK A01 T00280013  RH  090%=      5-min Rain = 0
KVA1 081533Z 04008KT 03/01 A3031 RMK A01 T00280012  RH  089%=      5-min Rain = 0
KVA1 081534Z 04008KT 03/01 A3031 RMK A01 T00280011  RH  088%=      5-min Rain = 0
KVA1 081535Z 03009KT 03/01 A3031 RMK A01 T00290012  RH  089%=      5-min Rain = 0
KVA1 081536Z 03009KT 03/01 A3031 RMK A01 T00290011  RH  088%=      5-min Rain = 0
KVA1 081537Z 03009KT 03/01 A3031 RMK A01 T00290011  RH  088%=      5-min Rain = 0
KVA1 081538Z 03009KT 03/01 A3031 RMK A01 T00290011  RH  088%=      5-min Rain = 0
KVA1 081539Z 03008KT 03/01 A3031 RMK A01 T00290011  RH  088%=      5-min Rain = 0
KVA1 081540Z 04007KT 03/01 A3031 RMK A01 T00290012  RH  089%=      5-min Rain = 0
KVA1 081541Z 03009KT 03/01 A3031 RMK A01 T00290012  RH  089%=      5-min Rain = 0
KVA1 081542Z 03010KT 03/01 A3031 RMK A01 T00300012  RH  088%=      5-min Rain = 0
KVA1 081543Z 02010KT 03/01 A3031 RMK A01 T00300011  RH  087%=      5-min Rain = 0
KVA1 081544Z 03008KT 03/01 A3031 RMK A01 T00300011  RH  087%=      5-min Rain = 0
KVA1 081545Z 03008KT 03/01 A3031 RMK A01 T00300011  RH  087%=      5-min Rain = 0
KVA1 081546Z 03009KT 03/01 A3032 RMK A01 T00300012  RH  088%=      5-min Rain = 0
KVA1 081547Z 02008KT 03/01 A3032 RMK A01 T00310012  RH  088%=      5-min Rain = 0
KVA1 081548Z 02007KT 03/01 A3032 RMK A01 T00310013  RH  088%=      5-min Rain = 0
KVA1 081549Z 03008KT 03/01 A3032 RMK A01 T00320013  RH  088%=      5-min Rain = 0
KVA1 081550Z 03008KT 03/01 A3032 RMK A01 T00320013  RH  087%=      5-min Rain = 0
KVA1 081551Z 03007KT 03/01 A3032 RMK A01 T00320013  RH  087%=      5-min Rain = 0
KVA1 081552Z 05006KT 03/02 A3032 RMK A01 T00330015  RH  088%=      5-min Rain = 0
KVA1 081553Z 04009KT 03/02 A3031 RMK A01 T00330015  RH  088%=      5-min Rain = 0
KVA1 081554Z 04009KT 03/01 A3031 RMK A01 T00330013  RH  086%=      5-min Rain = 0
KVA1 081555Z 04009KT 03/01 A3031 RMK A01 T00330012  RH  086%=      5-min Rain = 0
KVA1 081556Z 04010KT 03/01 A3031 RMK A01 T00330012  RH  087%=      5-min Rain = 0
KVA1 081557Z 04009KT 03/01 A3032 RMK A01 T00330013  RH  087%=      5-min Rain = 0
KVA1 081558Z 04010KT 03/01 A3032 RMK A01 T00330013  RH  087%=      5-min Rain = 0
KVA1 081559Z 03009KT 03/01 A3032 RMK A01 T00320011  RH  086%=      5-min Rain = 0
KVA1 081600Z 02011KT 03/01 A3032 RMK A01 T00320012  RH  087%=      5-min Rain = 0
KVA1 081601Z 02009KT 03/01 A3032 RMK A01 T00320012  RH  087%=      5-min Rain = 0
KVA1 081602Z 03008KT 03/01 A3032 RMK A01 T00320012  RH  087%=      5-min Rain = 0
KVA1 081603Z 03009KT 03/01 A3032 RMK A01 T00320013  RH  087%=      5-min Rain = 0
KVA1 081604Z 03008KT 03/01 A3032 RMK A01 T00320012  RH  086%=      5-min Rain = 0
KVA1 081605Z 03009KT 03/01 A3032 RMK A01 T00330013  RH  087%=      5-min Rain = 0
KVA1 081606Z 02009KT 03/01 A3032 RMK A01 T00330012  RH  086%=      5-min Rain = 0
KVA1 081607Z 02008KT 03/01 A3032 RMK A01 T00330011  RH  086%=      5-min Rain = 0
KVA1 081608Z 02009KT 03/01 A3032 RMK A01 T00330012  RH  086%=      5-min Rain = 0
KVA1 081609Z 02009KT 03/01 A3032 RMK A01 T00330011  RH  086%=      5-min Rain = 0
KVA1 081610Z 02008KT 03/01 A3032 RMK A01 T00330011  RH  086%=      5-min Rain = 0
KVA1 081611Z 02009KT 03/01 A3032 RMK A01 T00330012  RH  086%=      5-min Rain = 0
KVA1 081612Z 01009KT 03/01 A3032 RMK A01 T00330011  RH  086%=      5-min Rain = 0
KVA1 081613Z 02009KT 03/01 A3032 RMK A01 T00330011  RH  085%=      5-min Rain = 0
KVA1 081614Z 02009KT 03/01 A3032 RMK A01 T00330012  RH  086%=      5-min Rain = 0
KVA1 081615Z 02009KT 03/01 A3032 RMK A01 T00330012  RH  086%=      5-min Rain = 0
KVA1 081616Z 02010KT 03/01 A3032 RMK A01 T00330012  RH  086%=      5-min Rain = 0
KVA1 081617Z 02008KT 03/01 A3033 RMK A01 T00330012  RH  086%=      5-min Rain = 0
KVA1 081618Z 01009KT 03/01 A3033 RMK A01 T00330014  RH  087%=      5-min Rain = 0
KVA1 081619Z 02009KT 03/01 A3033 RMK A01 T00340013  RH  086%=      5-min Rain = 0
KVA1 081620Z 02008KT 03/01 A3033 RMK A01 T00330012  RH  086%=      5-min Rain = 0
KVA1 081621Z 02008KT 03/01 A3033 RMK A01 T00330012  RH  086%=      5-min Rain = 0
KVA1 081622Z 01006KT 03/01 A3033 RMK A01 T00330014  RH  087%=      5-min Rain = 0
KVA1 081623Z 01010KT 03/02 A3033 RMK A01 T00340015  RH  088%=      5-min Rain = 0
KVA1 081624Z 02010KT 03/01 A3033 RMK A01 T00340013  RH  086%=      5-min Rain = 0
KVA1 081625Z 02007KT 03/01 A3033 RMK A01 T00330010  RH  085%=      5-min Rain = 0
KVA1 081626Z 01008KT 03/01 A3033 RMK A01 T00330013  RH  087%=      5-min Rain = 0
KVA1 081627Z 01009KT 03/01 A3033 RMK A01 T00330012  RH  086%=      5-min Rain = 0
KVA1 081628Z 02009KT 03/01 A3033 RMK A01 T00330011  RH  085%=      5-min Rain = 0
KVA1 081629Z 03008KT 03/01 A3033 RMK A01 T00330012  RH  086%=      5-min Rain = 0
KVA1 081630Z 02007KT 03/01 A3033 RMK A01 T00340013  RH  087%=      5-min Rain = 0
KVA1 081631Z 02008KT 04/01 A3033 RMK A01 T00350014  RH  086%=      5-min Rain = 0
KVA1 081632Z 02007KT 04/01 A3033 RMK A01 T00350014  RH  086%=      5-min Rain = 0
KVA1 081633Z 01009KT 04/01 A3033 RMK A01 T00360013  RH  085%=      5-min Rain = 0
KVA1 081634Z 02009KT 04/01 A3033 RMK A01 T00350012  RH  085%=      5-min Rain = 0
KVA1 081635Z 02009KT 04/01 A3033 RMK A01 T00350012  RH  085%=      5-min Rain = 0
KVA1 081636Z 02007KT 03/01 A3033 RMK A01 T00340011  RH  085%=      5-min Rain = 0
KVA1 081637Z 03008KT 03/01 A3033 RMK A01 T00340013  RH  086%=      5-min Rain = 0
KVA1 081638Z 03009KT 03/01 A3033 RMK A01 T00340013  RH  086%=      5-min Rain = 0
KVA1 081639Z 01007KT 03/01 A3033 RMK A01 T00340013  RH  086%=      5-min Rain = 0
KVA1 081640Z 01006KT 04/02 A3033 RMK A01 T00350015  RH  087%=      5-min Rain = 0
KVA1 081641Z 01007KT 04/02 A3033 RMK A01 T00350015  RH  087%=      5-min Rain = 0
KVA1 081642Z 02008KT 04/02 A3033 RMK A01 T00350015  RH  086%=      5-min Rain = 0
KVA1 081643Z 04006KT 04/02 A3033 RMK A01 T00360016  RH  087%=      5-min Rain = 0
KVA1 081644Z 04007KT 04/02 A3033 RMK A01 T00360016  RH  087%=      5-min Rain = 0
KVA1 081645Z 04008KT 04/01 A3033 RMK A01 T00360013  RH  085%=      5-min Rain = 0
KVA1 081646Z 03008KT 04/01 A3033 RMK A01 T00360012  RH  085%=      5-min Rain = 0
KVA1 081647Z 04009KT 04/01 A3033 RMK A01 T00350010  RH  084%=      5-min Rain = 0
KVA1 081648Z 03007KT 04/01 A3033 RMK A01 T00350011  RH  084%=      5-min Rain = 0
KVA1 081649Z 03007KT 04/01 A3033 RMK A01 T00350012  RH  085%=      5-min Rain = 0
KVA1 081650Z 04008KT 04/01 A3033 RMK A01 T00350013  RH  085%=      5-min Rain = 0
KVA1 081651Z 04007KT 04/01 A3033 RMK A01 T00360013  RH  085%=      5-min Rain = 0
KVA1 081652Z 03008KT 04/01 A3033 RMK A01 T00360013  RH  085%=      5-min Rain = 0
KVA1 081653Z 03008KT 04/01 A3033 RMK A01 T00370013  RH  085%=      5-min Rain = 0
KVA1 081654Z 02008KT 04/01 A3033 RMK A01 T00370013  RH  085%=      5-min Rain = 0
KVA1 081655Z 02008KT 04/01 A3033 RMK A01 T00380014  RH  085%=      5-min Rain = 0
KVA1 081656Z 02007KT 04/01 A3033 RMK A01 T00380014  RH  084%=      5-min Rain = 0
KVA1 081657Z 03007KT 04/02 A3033 RMK A01 T00390015  RH  084%=      5-min Rain = 0
KVA1 081658Z 03007KT 04/01 A3033 RMK A01 T00390014  RH  084%=      5-min Rain = 0
KVA1 081659Z 04007KT 04/01 A3033 RMK A01 T00390014  RH  083%=      5-min Rain = 0
KVA1 081700Z 04007KT 04/01 A3033 RMK A01 T00390012  RH  082%=      5-min Rain = 0
KVA1 081701Z 04008KT 04/01 A3033 RMK A01 T00390013  RH  083%=      5-min Rain = 0
KVA1 081702Z 04006KT 04/01 A3033 RMK A01 T00390011  RH  082%=      5-min Rain = 0
KVA1 081703Z 03007KT 04/01 A3033 RMK A01 T00390010  RH  082%=      5-min Rain = 0
KVA1 081704Z 02006KT 04/01 A3033 RMK A01 T00390013  RH  083%=      5-min Rain = 0
KVA1 081705Z 03006KT 04/02 A3033 RMK A01 T00390015  RH  084%=      5-min Rain = 0
KVA1 081706Z 02005KT 04/02 A3033 RMK A01 T00400015  RH  084%=      5-min Rain = 0
KVA1 081707Z 04005KT 04/02 A3033 RMK A01 T00410018  RH  085%=      5-min Rain = 0
KVA1 081708Z 04007KT 04/02 A3033 RMK A01 T00420018  RH  084%=      5-min Rain = 0
KVA1 081709Z 04009KT 04/02 A3033 RMK A01 T00420016  RH  084%=      5-min Rain = 0
KVA1 081710Z 04007KT 04/01 A3033 RMK A01 T00400014  RH  083%=      5-min Rain = 0
KVA1 081711Z 04009KT 04/01 A3033 RMK A01 T00390014  RH  084%=      5-min Rain = 0
KVA1 081712Z 03009KT 04/01 A3033 RMK A01 T00380013  RH  083%=      5-min Rain = 0
KVA1 081713Z 03008KT 04/01 A3033 RMK A01 T00380012  RH  083%=      5-min Rain = 0
KVA1 081714Z 04007KT 04/01 A3033 RMK A01 T00380014  RH  084%=      5-min Rain = 0
KVA1 081715Z 03006KT 04/02 A3033 RMK A01 T00380015  RH  085%=      5-min Rain = 0
KVA1 081716Z 03006KT 04/02 A3034 RMK A01 T00390017  RH  085%=      5-min Rain = 0
KVA1 081717Z 02008KT 04/02 A3034 RMK A01 T00390015  RH  084%=      5-min Rain = 0
KVA1 081718Z 02008KT 04/01 A3034 RMK A01 T00390013  RH  083%=      5-min Rain = 0
KVA1 081719Z 02007KT 04/01 A3034 RMK A01 T00380012  RH  083%=      5-min Rain = 0
KVA1 081720Z 02007KT 04/01 A3034 RMK A01 T00370013  RH  084%=      5-min Rain = 0
KVA1 081721Z 02006KT 04/01 A3034 RMK A01 T00370012  RH  084%=      5-min Rain = 0
KVA1 081722Z 02008KT 04/01 A3034 RMK A01 T00370013  RH  084%=      5-min Rain = 0
KVA1 081723Z 02007KT 04/01 A3034 RMK A01 T00370012  RH  084%=      5-min Rain = 0
KVA1 081724Z 01007KT 04/01 A3034 RMK A01 T00380014  RH  084%=      5-min Rain = 0
KVA1 081725Z 02007KT 04/02 A3034 RMK A01 T00390015  RH  085%=      5-min Rain = 0
KVA1 081726Z 02006KT 04/01 A3034 RMK A01 T00390013  RH  083%=      5-min Rain = 0
KVA1 081727Z 02007KT 04/01 A3034 RMK A01 T00380014  RH  084%=      5-min Rain = 0
KVA1 081728Z 03007KT 04/01 A3034 RMK A01 T00380014  RH  084%=      5-min Rain = 0
KVA1 081729Z 03008KT 04/01 A3034 RMK A01 T00380014  RH  084%=      5-min Rain = 0
KVA1 081730Z 03008KT 04/01 A3034 RMK A01 T00380014  RH  084%=      5-min Rain = 0
KVA1 081731Z 02007KT 04/01 A3034 RMK A01 T00380012  RH  083%=      5-min Rain = 0
KVA1 081732Z 03007KT 04/01 A3034 RMK A01 T00370012  RH  084%=      5-min Rain = 0
KVA1 081733Z 02007KT 04/01 A3034 RMK A01 T00370013  RH  084%=      5-min Rain = 0
KVA1 081734Z 03007KT 04/01 A3034 RMK A01 T00370013  RH  084%=      5-min Rain = 0
KVA1 081735Z 03007KT 04/01 A3034 RMK A01 T00370014  RH  085%=      5-min Rain = 0
KVA1 081736Z 03007KT 04/01 A3034 RMK A01 T00370014  RH  085%=      5-min Rain = 0
KVA1 081737Z 03006KT 04/01 A3033 RMK A01 T00370014  RH  085%=      5-min Rain = 0
KVA1 081738Z 02006KT 04/01 A3033 RMK A01 T00370013  RH  084%=      5-min Rain = 0
KVA1 081739Z 00007KT 04/01 A3033 RMK A01 T00370013  RH  085%=      5-min Rain = 0
KVA1 081740Z 02006KT 04/01 A3033 RMK A01 T00370013  RH  085%=      5-min Rain = 0
KVA1 081741Z 02007KT 04/01 A3033 RMK A01 T00370013  RH  084%=      5-min Rain = 0
KVA1 081742Z 02007KT 04/01 A3033 RMK A01 T00370013  RH  084%=      5-min Rain = 0
KVA1 081743Z 02006KT 04/01 A3033 RMK A01 T00370013  RH  084%=      5-min Rain = 0
KVA1 081744Z 04005KT 04/01 A3033 RMK A01 T00370012  RH  084%=      5-min Rain = 0
KVA1 081745Z 04005KT 04/01 A3033 RMK A01 T00370012  RH  084%=      5-min Rain = 0
KVA1 081746Z 03005KT 04/01 A3033 RMK A01 T00370012  RH  083%=      5-min Rain = 0
KVA1 081747Z 02005KT 04/01 A3034 RMK A01 T00370013  RH  084%=      5-min Rain = 0
KVA1 081748Z 01004KT 04/02 A3034 RMK A01 T00390017  RH  086%=      5-min Rain = 0
KVA1 081749Z 03004KT 04/02 A3034 RMK A01 T00400016  RH  085%=      5-min Rain = 0
KVA1 081750Z 03006KT 04/02 A3034 RMK A01 T00400016  RH  084%=      5-min Rain = 0
KVA1 081751Z 03004KT 04/01 A3034 RMK A01 T00400014  RH  083%=      5-min Rain = 0
KVA1 081752Z 03004KT 04/02 A3034 RMK A01 T00400016  RH  085%=      5-min Rain = 0
KVA1 081753Z 03006KT 04/02 A3033 RMK A01 T00410017  RH  084%=      5-min Rain = 0
KVA1 081754Z 02005KT 04/01 A3033 RMK A01 T00410014  RH  083%=      5-min Rain = 0
KVA1 081755Z 02005KT 04/01 A3033 RMK A01 T00390012  RH  082%=      5-min Rain = 0
KVA1 081756Z 02004KT 04/01 A3033 RMK A01 T00390013  RH  083%=      5-min Rain = 0
KVA1 081757Z 02004KT 04/01 A3033 RMK A01 T00390012  RH  082%=      5-min Rain = 0
KVA1 081758Z 04005KT 04/01 A3033 RMK A01 T00380012  RH  083%=      5-min Rain = 0
KVA1 081759Z 05005KT 04/01 A3033 RMK A01 T00380011  RH  083%=      5-min Rain = 0
KVA1 081800Z 05007KT 04/01 A3033 RMK A01 T00380012  RH  083%=      5-min Rain = 0
KVA1 081801Z 04006KT 04/01 A3033 RMK A01 T00380013  RH  084%=      5-min Rain = 0
KVA1 081802Z 02007KT 04/01 A3033 RMK A01 T00380014  RH  084%=      5-min Rain = 0
KVA1 081803Z 01006KT 04/02 A3033 RMK A01 T00400017  RH  085%=      5-min Rain = 0
KVA1 081804Z 01008KT 04/02 A3034 RMK A01 T00410018  RH  085%=      5-min Rain = 0
KVA1 081805Z 01008KT 04/02 A3034 RMK A01 T00400015  RH  083%=      5-min Rain = 0
KVA1 081806Z 01007KT 04/02 A3034 RMK A01 T00400016  RH  085%=      5-min Rain = 0
KVA1 081807Z 01007KT 04/02 A3033 RMK A01 T00400017  RH  085%=      5-min Rain = 0
KVA1 081808Z 01008KT 04/02 A3034 RMK A01 T00410017  RH  085%=      5-min Rain = 0
KVA1 081809Z 01007KT 04/02 A3034 RMK A01 T00410016  RH  084%=      5-min Rain = 0
KVA1 081810Z 00008KT 04/02 A3034 RMK A01 T00400015  RH  084%=      5-min Rain = 0
KVA1 081811Z 01006KT 04/01 A3034 RMK A01 T00390014  RH  083%=      5-min Rain = 0
KVA1 081812Z 01007KT 04/02 A3033 RMK A01 T00390015  RH  084%=      5-min Rain = 0
KVA1 081813Z 02008KT 04/02 A3033 RMK A01 T00400016  RH  085%=      5-min Rain = 0
KVA1 081814Z 01006KT 04/02 A3033 RMK A01 T00400015  RH  083%=      5-min Rain = 0
KVA1 081815Z 02007KT 04/02 A3033 RMK A01 T00400015  RH  083%=      5-min Rain = 0
KVA1 081816Z 03007KT 04/02 A3033 RMK A01 T00410016  RH  084%=      5-min Rain = 0
KVA1 081817Z 02006KT 04/02 A3033 RMK A01 T00420018  RH  084%=      5-min Rain = 0
KVA1 081818Z 01006KT 04/02 A3033 RMK A01 T00420017  RH  084%=      5-min Rain = 0
KVA1 081819Z 01005KT 04/02 A3033 RMK A01 T00430016  RH  083%=      5-min Rain = 0
KVA1 081820Z 01006KT 04/02 A3033 RMK A01 T00420016  RH  083%=      5-min Rain = 0
KVA1 081821Z 03007KT 04/02 A3033 RMK A01 T00420018  RH  084%=      5-min Rain = 0
KVA1 081822Z 04007KT 04/02 A3033 RMK A01 T00420015  RH  082%=      5-min Rain = 0
KVA1 081823Z 03007KT 04/01 A3033 RMK A01 T00420014  RH  082%=      5-min Rain = 0
KVA1 081824Z 04007KT 04/02 A3033 RMK A01 T00420015  RH  083%=      5-min Rain = 0
KVA1 081825Z 04005KT 04/01 A3032 RMK A01 T00420014  RH  082%=      5-min Rain = 0
KVA1 081826Z 05007KT 04/01 A3032 RMK A01 T00420013  RH  082%=      5-min Rain = 0
KVA1 081827Z 05007KT 04/01 A3032 RMK A01 T00420012  RH  081%=      5-min Rain = 0
KVA1 081828Z 04007KT 04/01 A3032 RMK A01 T00410013  RH  082%=      5-min Rain = 0
KVA1 081829Z 04007KT 04/02 A3032 RMK A01 T00410015  RH  083%=      5-min Rain = 0
KVA1 081830Z 04007KT 04/01 A3032 RMK A01 T00410014  RH  083%=      5-min Rain = 0
KVA1 081831Z 03005KT 04/01 A3032 RMK A01 T00410014  RH  082%=      5-min Rain = 0
KVA1 081832Z 02006KT 04/01 A3032 RMK A01 T00410014  RH  083%=      5-min Rain = 0
KVA1 081833Z 02005KT 04/02 A3032 RMK A01 T00410016  RH  084%=      5-min Rain = 0
KVA1 081834Z 04006KT 04/02 A3032 RMK A01 T00410016  RH  083%=      5-min Rain = 0
KVA1 081835Z 05005KT 04/02 A3031 RMK A01 T00420015  RH  083%=      5-min Rain = 0
KVA1 081836Z 04006KT 04/02 A3031 RMK A01 T00420015  RH  083%=      5-min Rain = 0
KVA1 081837Z 04006KT 04/01 A3031 RMK A01 T00420012  RH  081%=      5-min Rain = 0
KVA1 081838Z 03006KT 04/01 A3031 RMK A01 T00410011  RH  081%=      5-min Rain = 0
KVA1 081839Z 03006KT 04/01 A3031 RMK A01 T00410013  RH  082%=      5-min Rain = 0
KVA1 081840Z 04005KT 04/02 A3031 RMK A01 T00420015  RH  082%=      5-min Rain = 0
KVA1 081841Z 04002KT 04/01 A3031 RMK A01 T00420013  RH  082%=      5-min Rain = 0
KVA1 081842Z 04004KT 04/01 A3031 RMK A01 T00420012  RH  081%=      5-min Rain = 0
KVA1 081843Z 03003KT 04/02 A3031 RMK A01 T00440019  RH  084%=      5-min Rain = 0
KVA1 081844Z 03004KT 05/02 A3031 RMK A01 T00460019  RH  083%=      5-min Rain = 0
KVA1 081845Z 03003KT 05/02 A3031 RMK A01 T00460016  RH  081%=      5-min Rain = 0
KVA1 081846Z 02002KT 05/01 A3031 RMK A01 T00450014  RH  080%=      5-min Rain = 0
KVA1 081847Z 03003KT 05/01 A303 RMK A01 T00450013  RH  080%=      5-min Rain = 0
KVA1 081848Z 03003KT 05/02 A303 RMK A01 T00450017  RH  082%=      5-min Rain = 0
KVA1 081849Z 04003KT 05/02 A303 RMK A01 T00470019  RH  082%=      5-min Rain = 0
KVA1 081850Z 07004KT 05/02 A303 RMK A01 T00490019  RH  081%=      5-min Rain = 0
KVA1 081851Z 08004KT 05/02 A303 RMK A01 T00490017  RH  080%=      5-min Rain = 0
KVA1 081852Z 10003KT 05/01 A303 RMK A01 T00480014  RH  078%=      5-min Rain = 0
KVA1 081853Z 09002KT 05/01 A303 RMK A01 T00460011  RH  078%=      5-min Rain = 0
KVA1 081854Z 10000KT 05/01 A303 RMK A01 T00460013  RH  079%=      5-min Rain = 0
KVA1 081855Z 08000KT 05/01 A303 RMK A01 T00460014  RH  080%=      5-min Rain = 0
KVA1 081856Z 12000KT 05/01 A303 RMK A01 T00470014  RH  079%=      5-min Rain = 0
KVA1 081857Z 08002KT 05/02 A303 RMK A01 T00490016  RH  079%=      5-min Rain = 0
KVA1 081858Z 08004KT 05/01 A303 RMK A01 T00500014  RH  078%=      5-min Rain = 0
KVA1 081859Z 08003KT 05/01 A303 RMK A01 T00500013  RH  077%=      5-min Rain = 0
KVA1 081900Z 08003KT 05/02 A303 RMK A01 T00500016  RH  078%=      5-min Rain = 0
KVA1 081901Z 09003KT 05/02 A3029 RMK A01 T00510015  RH  078%=      5-min Rain = 0
KVA1 081902Z 12001KT 05/02 A3029 RMK A01 T00520018  RH  079%=      5-min Rain = 0
KVA1 081903Z 09004KT 05/02 A3029 RMK A01 T00540020  RH  079%=      5-min Rain = 0
KVA1 081904Z 08003KT 06/02 A3029 RMK A01 T00550017  RH  076%=      5-min Rain = 0
KVA1 081905Z 09002KT 05/02 A3029 RMK A01 T00530015  RH  076%=      5-min Rain = 0
KVA1 081906Z 09001KT 05/02 A3029 RMK A01 T00520015  RH  077%=      5-min Rain = 0
KVA1 081907Z 08003KT 05/02 A3029 RMK A01 T00530018  RH  078%=      5-min Rain = 0
KVA1 081908Z 10001KT 05/02 A3029 RMK A01 T00540017  RH  078%=      5-min Rain = 0
KVA1 081909Z 33000KT 05/01 A3029 RMK A01 T00540014  RH  075%=      5-min Rain = 0
KVA1 081910Z 02001KT 05/02 A3029 RMK A01 T00540016  RH  076%=      5-min Rain = 0
KVA1 081911Z 01001KT 06/02 A3029 RMK A01 T00560018  RH  076%=      5-min Rain = 0
KVA1 081912Z 03001KT 06/02 A3029 RMK A01 T00560015  RH  075%=      5-min Rain = 0
KVA1 081913Z 04000KT 06/01 A3029 RMK A01 T00560012  RH  074%=      5-min Rain = 0
KVA1 081914Z 29001KT 06/01 A3029 RMK A01 T00550011  RH  073%=      5-min Rain = 0
KVA1 081915Z 29002KT 06/01 A3029 RMK A01 T00560013  RH  074%=      5-min Rain = 0
KVA1 081916Z 33002KT 06/02 A3029 RMK A01 T00570017  RH  075%=      5-min Rain = 0
KVA1 081917Z 02001KT 06/02 A3029 RMK A01 T00580018  RH  076%=      5-min Rain = 0
KVA1 081918Z 04002KT 06/02 A3029 RMK A01 T00580017  RH  075%=      5-min Rain = 0
KVA1 081919Z 07004KT 06/02 A3029 RMK A01 T00590017  RH  075%=      5-min Rain = 0
KVA1 081920Z 08004KT 06/02 A3029 RMK A01 T00590017  RH  074%=      5-min Rain = 0
KVA1 081921Z 09005KT 06/02 A3029 RMK A01 T00600019  RH  075%=      5-min Rain = 0
KVA1 081922Z 09004KT 06/02 A3028 RMK A01 T00610017  RH  073%=      5-min Rain = 0
KVA1 081923Z 11002KT 06/02 A3028 RMK A01 T00600015  RH  073%=      5-min Rain = 0
KVA1 081924Z 13001KT 06/01 A3028 RMK A01 T00590014  RH  072%=      5-min Rain = 0
KVA1 081925Z 13002KT 06/02 A3028 RMK A01 T00610017  RH  074%=      5-min Rain = 0
KVA1 081926Z 10003KT 06/02 A3028 RMK A01 T00640019  RH  073%=      5-min Rain = 0
KVA1 081927Z 07004KT 07/02 A3028 RMK A01 T00650018  RH  072%=      5-min Rain = 0
KVA1 081928Z 07003KT 07/02 A3028 RMK A01 T00650021  RH  074%=      5-min Rain = 0
KVA1 081929Z 06002KT 07/02 A3028 RMK A01 T00650016  RH  071%=      5-min Rain = 0
KVA1 081930Z 12001KT 06/01 A3028 RMK A01 T00630014  RH  071%=      5-min Rain = 0
KVA1 081931Z 11002KT 06/02 A3028 RMK A01 T00640018  RH  072%=      5-min Rain = 0
KVA1 081932Z 08002KT 06/02 A3028 RMK A01 T00640018  RH  072%=      5-min Rain = 0
KVA1 081933Z 07003KT 07/02 A3028 RMK A01 T00660023  RH  074%=      5-min Rain = 0
KVA1 081934Z 11003KT 07/02 A3028 RMK A01 T00650018  RH  072%=      5-min Rain = 0
KVA1 081935Z 12003KT 06/02 A3028 RMK A01 T00630017  RH  072%=      5-min Rain = 0
KVA1 081936Z 13002KT 06/02 A3028 RMK A01 T00610017  RH  073%=      5-min Rain = 0
KVA1 081937Z 09002KT 06/02 A3028 RMK A01 T00610018  RH  074%=      5-min Rain = 0
KVA1 081938Z 01003KT 06/02 A3028 RMK A01 T00610022  RH  076%=      5-min Rain = 0
KVA1 081939Z 01004KT 06/02 A3028 RMK A01 T00620024  RH  077%=      5-min Rain = 0
KVA1 081940Z 01004KT 06/02 A3028 RMK A01 T00610020  RH  075%=      5-min Rain = 0
KVA1 081941Z 01004KT 06/02 A3028 RMK A01 T00600022  RH  076%=      5-min Rain = 0
KVA1 081942Z 02005KT 06/02 A3028 RMK A01 T00590022  RH  077%=      5-min Rain = 0
KVA1 081943Z 02004KT 06/02 A3028 RMK A01 T00590019  RH  076%=      5-min Rain = 0
KVA1 081944Z 03002KT 06/02 A3028 RMK A01 T00580018  RH  075%=      5-min Rain = 0
KVA1 081945Z 05003KT 06/02 A3028 RMK A01 T00570022  RH  078%=      5-min Rain = 0
KVA1 081946Z 02004KT 06/03 A3028 RMK A01 T00590025  RH  078%=      5-min Rain = 0
KVA1 081947Z 03003KT 06/02 A3028 RMK A01 T00600020  RH  076%=      5-min Rain = 0
KVA1 081948Z 02002KT 06/02 A3028 RMK A01 T00580017  RH  075%=      5-min Rain = 0
KVA1 081949Z 36004KT 06/02 A3028 RMK A01 T00570018  RH  076%=      5-min Rain = 0
KVA1 081950Z 03004KT 06/02 A3028 RMK A01 T00580020  RH  077%=      5-min Rain = 0
KVA1 081951Z 04003KT 06/02 A3028 RMK A01 T00580019  RH  076%=      5-min Rain = 0
KVA1 081952Z 05002KT 06/02 A3028 RMK A01 T00570018  RH  076%=      5-min Rain = 0
KVA1 081953Z 34001KT 06/02 A3028 RMK A01 T00570018  RH  076%=      5-min Rain = 0
KVA1 081954Z 33003KT 06/02 A3028 RMK A01 T00580024  RH  079%=      5-min Rain = 0
KVA1 081955Z 34003KT 06/02 A3028 RMK A01 T00580021  RH  077%=      5-min Rain = 0
KVA1 081956Z 33002KT 06/02 A3028 RMK A01 T00590020  RH  076%=      5-min Rain = 0
KVA1 081957Z 00001KT 06/02 A3028 RMK A01 T00590021  RH  077%=      5-min Rain = 0
KVA1 081958Z 06003KT 06/02 A3028 RMK A01 T00590020  RH  076%=      5-min Rain = 0
KVA1 081959Z 05003KT 06/02 A3028 RMK A01 T00590021  RH  076%=      5-min Rain = 0
KVA1 082000Z 01004KT 06/02 A3028 RMK A01 T00600024  RH  078%=      5-min Rain = 0
KVA1 082001Z 01003KT 06/02 A3028 RMK A01 T00610021  RH  076%=      5-min Rain = 0
KVA1 082002Z 01002KT 06/02 A3028 RMK A01 T00600019  RH  075%=      5-min Rain = 0
KVA1 082003Z 36003KT 06/02 A3028 RMK A01 T00590020  RH  076%=      5-min Rain = 0
KVA1 082004Z 33003KT 06/02 A3028 RMK A01 T00600022  RH  077%=      5-min Rain = 0
KVA1 082005Z 33003KT 06/02 A3028 RMK A01 T00600019  RH  075%=      5-min Rain = 0
KVA1 082006Z 02002KT 06/02 A3028 RMK A01 T00600019  RH  075%=      5-min Rain = 0
KVA1 082007Z 01002KT 06/02 A3028 RMK A01 T00590018  RH  075%=      5-min Rain = 0
KVA1 082008Z 01002KT 06/02 A3028 RMK A01 T00600022  RH  077%=      5-min Rain = 0
KVA1 082009Z 01001KT 06/03 A3028 RMK A01 T00610025  RH  078%=      5-min Rain = 0
KVA1 082010Z 04002KT 06/02 A3028 RMK A01 T00620023  RH  076%=      5-min Rain = 0
KVA1 082011Z 01002KT 06/02 A3028 RMK A01 T00620020  RH  075%=      5-min Rain = 0
KVA1 082012Z 35002KT 06/02 A3028 RMK A01 T00620023  RH  076%=      5-min Rain = 0
KVA1 082013Z 02002KT 06/02 A3027 RMK A01 T00620024  RH  077%=      5-min Rain = 0
KVA1 082014Z 36002KT 06/02 A3027 RMK A01 T00620020  RH  074%=      5-min Rain = 0
KVA1 082015Z 02003KT 06/02 A3027 RMK A01 T00620019  RH  074%=      5-min Rain = 0
KVA1 082016Z 01003KT 06/02 A3028 RMK A01 T00610020  RH  075%=      5-min Rain = 0
KVA1 082017Z 34003KT 06/02 A3028 RMK A01 T00610021  RH  075%=      5-min Rain = 0
KVA1 082018Z 00002KT 06/02 A3028 RMK A01 T00610020  RH  075%=      5-min Rain = 0
KVA1 082019Z 02002KT 06/02 A3027 RMK A01 T00600019  RH  075%=      5-min Rain = 0
KVA1 082020Z 04003KT 06/02 A3027 RMK A01 T00600023  RH  077%=      5-min Rain = 0
KVA1 082021Z 02004KT 06/03 A3027 RMK A01 T00620026  RH  078%=      5-min Rain = 0
KVA1 082022Z 02002KT 06/02 A3027 RMK A01 T00620024  RH  076%=      5-min Rain = 0
KVA1 082023Z 05002KT 06/02 A3027 RMK A01 T00620023  RH  076%=      5-min Rain = 0
KVA1 082024Z 03004KT 06/02 A3027 RMK A01 T00620023  RH  076%=      5-min Rain = 0
KVA1 082025Z 02004KT 06/02 A3027 RMK A01 T00620022  RH  076%=      5-min Rain = 0
KVA1 082026Z 02004KT 06/02 A3027 RMK A01 T00610024  RH  077%=      5-min Rain = 0
KVA1 082027Z 02003KT 06/02 A3027 RMK A01 T00610022  RH  076%=      5-min Rain = 0
KVA1 082028Z 01002KT 06/02 A3027 RMK A01 T00610023  RH  077%=      5-min Rain = 0
KVA1 082029Z 00000KT 06/02 A3027 RMK A01 T00610021  RH  076%=      5-min Rain = 0
KVA1 082030Z 34000KT 06/02 A3027 RMK A01 T00610021  RH  076%=      5-min Rain = 0
KVA1 082031Z 04001KT 06/02 A3027 RMK A01 T00620024  RH  077%=      5-min Rain = 0
KVA1 082032Z 05003KT 06/02 A3027 RMK A01 T00620022  RH  075%=      5-min Rain = 0
KVA1 082033Z 04005KT 06/03 A3027 RMK A01 T00620025  RH  077%=      5-min Rain = 0
KVA1 082034Z 05005KT 06/03 A3027 RMK A01 T00630026  RH  077%=      5-min Rain = 0
KVA1 082035Z 04004KT 06/02 A3027 RMK A01 T00630023  RH  076%=      5-min Rain = 0
KVA1 082036Z 04003KT 06/02 A3027 RMK A01 T00610021  RH  076%=      5-min Rain = 0
KVA1 082037Z 06002KT 06/02 A3027 RMK A01 T00600023  RH  077%=      5-min Rain = 0
KVA1 082038Z 02002KT 06/03 A3027 RMK A01 T00600025  RH  078%=      5-min Rain = 0
KVA1 082039Z 02002KT 06/03 A3027 RMK A01 T00620028  RH  079%=      5-min Rain = 0
KVA1 082040Z 03004KT 06/03 A3027 RMK A01 T00630031  RH  080%=      5-min Rain = 0
KVA1 082041Z 02004KT 07/03 A3027 RMK A01 T00650032  RH  079%=      5-min Rain = 0
KVA1 082042Z 01006KT 07/03 A3027 RMK A01 T00650029  RH  078%=      5-min Rain = 0
KVA1 082043Z 03005KT 06/03 A3026 RMK A01 T00640028  RH  078%=      5-min Rain = 0
KVA1 082044Z 04005KT 06/03 A3026 RMK A01 T00640029  RH  078%=      5-min Rain = 0
KVA1 082045Z 05005KT 06/03 A3026 RMK A01 T00630027  RH  078%=      5-min Rain = 0
KVA1 082046Z 04004KT 06/03 A3026 RMK A01 T00630030  RH  079%=      5-min Rain = 0
KVA1 082047Z 03004KT 06/03 A3026 RMK A01 T00640031  RH  079%=      5-min Rain = 0
KVA1 082048Z 36004KT 06/03 A3026 RMK A01 T00640029  RH  078%=      5-min Rain = 0
KVA1 082049Z 03003KT 07/03 A3027 RMK A01 T00650030  RH  078%=      5-min Rain = 0
KVA1 082050Z 05005KT 06/03 A3027 RMK A01 T00640028  RH  078%=      5-min Rain = 0
KVA1 082051Z 05004KT 06/03 A3027 RMK A01 T00630028  RH  078%=      5-min Rain = 0
KVA1 082052Z 05005KT 06/03 A3027 RMK A01 T00620027  RH  078%=      5-min Rain = 0
KVA1 082053Z 04005KT 06/03 A3027 RMK A01 T00620029  RH  080%=      5-min Rain = 0
KVA1 082054Z 04004KT 06/03 A3027 RMK A01 T00620028  RH  079%=      5-min Rain = 0
KVA1 082055Z 01005KT 06/03 A3027 RMK A01 T00620032  RH  081%=      5-min Rain = 0
KVA1 082056Z 01005KT 06/03 A3027 RMK A01 T00610028  RH  079%=      5-min Rain = 0
KVA1 082057Z 01003KT 06/03 A3027 RMK A01 T00600028  RH  080%=      5-min Rain = 0
KVA1 082058Z 03004KT 06/03 A3027 RMK A01 T00600029  RH  081%=      5-min Rain = 0
KVA1 082059Z 01003KT 06/03 A3027 RMK A01 T00600030  RH  081%=      5-min Rain = 0
KVA1 082100Z 01004KT 06/03 A3027 RMK A01 T00600030  RH  081%=      5-min Rain = 0
KVA1 082101Z 02004KT 06/03 A3027 RMK A01 T00610031  RH  081%=      5-min Rain = 0
KVA1 082102Z 02005KT 06/03 A3027 RMK A01 T00620030  RH  080%=      5-min Rain = 0
KVA1 082103Z 02005KT 06/03 A3027 RMK A01 T00620030  RH  080%=      5-min Rain = 0
KVA1 082104Z 03004KT 06/03 A3027 RMK A01 T00620028  RH  079%=      5-min Rain = 0
KVA1 082105Z 03004KT 06/03 A3026 RMK A01 T00610029  RH  080%=      5-min Rain = 0
KVA1 082106Z 03003KT 06/03 A3026 RMK A01 T00610029  RH  080%=      5-min Rain = 0
KVA1 082107Z 03005KT 06/03 A3026 RMK A01 T00610028  RH  079%=      5-min Rain = 0
KVA1 082108Z 05005KT 06/03 A3026 RMK A01 T00610029  RH  080%=      5-min Rain = 0
KVA1 082109Z 05004KT 06/03 A3026 RMK A01 T00600028  RH  080%=      5-min Rain = 0
KVA1 082110Z 06005KT 06/03 A3026 RMK A01 T00600029  RH  080%=      5-min Rain = 0
KVA1 082111Z 06004KT 06/03 A3026 RMK A01 T00610028  RH  079%=      5-min Rain = 0
KVA1 082112Z 05002KT 06/03 A3026 RMK A01 T00600026  RH  079%=      5-min Rain = 0
KVA1 082113Z 05004KT 06/03 A3026 RMK A01 T00590027  RH  080%=      5-min Rain = 0
KVA1 082114Z 07005KT 06/03 A3026 RMK A01 T00590028  RH  080%=      5-min Rain = 0
KVA1 082115Z 07004KT 06/03 A3026 RMK A01 T00590027  RH  080%=      5-min Rain = 0
KVA1 082116Z 07004KT 06/03 A3026 RMK A01 T00600028  RH  080%=      5-min Rain = 0
KVA1 082117Z 04004KT 06/03 A3026 RMK A01 T00600028  RH  080%=      5-min Rain = 0
KVA1 082118Z 03004KT 06/03 A3026 RMK A01 T00600030  RH  081%=      5-min Rain = 0
KVA1 082119Z 05005KT 06/03 A3026 RMK A01 T00610029  RH  080%=      5-min Rain = 0
KVA1 082120Z 04003KT 06/03 A3026 RMK A01 T00610027  RH  079%=      5-min Rain = 0
KVA1 082121Z 05003KT 06/03 A3026 RMK A01 T00590026  RH  079%=      5-min Rain = 0
KVA1 082122Z 04003KT 06/03 A3026 RMK A01 T00590025  RH  079%=      5-min Rain = 0
KVA1 082123Z 03003KT 06/03 A3026 RMK A01 T00580025  RH  079%=      5-min Rain = 0
KVA1 082124Z 03003KT 06/03 A3026 RMK A01 T00580026  RH  080%=      5-min Rain = 0
KVA1 082125Z 01002KT 06/03 A3026 RMK A01 T00580026  RH  080%=      5-min Rain = 0
KVA1 082126Z 03004KT 06/03 A3026 RMK A01 T00590030  RH  081%=      5-min Rain = 0
KVA1 082127Z 04002KT 06/03 A3026 RMK A01 T00600029  RH  081%=      5-min Rain = 0
KVA1 082128Z 05004KT 06/03 A3026 RMK A01 T00610029  RH  080%=      5-min Rain = 0
KVA1 082129Z 05004KT 06/03 A3026 RMK A01 T00610028  RH  079%=      5-min Rain = 0
KVA1 082130Z 06004KT 06/03 A3026 RMK A01 T00610029  RH  080%=      5-min Rain = 0
KVA1 082131Z 06003KT 06/03 A3026 RMK A01 T00610026  RH  079%=      5-min Rain = 0
KVA1 082132Z 06003KT 06/03 A3026 RMK A01 T00590025  RH  079%=      5-min Rain = 0
KVA1 082133Z 06003KT 06/03 A3026 RMK A01 T00590026  RH  079%=      5-min Rain = 0
KVA1 082134Z 04004KT 06/03 A3026 RMK A01 T00580026  RH  080%=      5-min Rain = 0
KVA1 082135Z 04003KT 06/03 A3026 RMK A01 T00590028  RH  081%=      5-min Rain = 0
KVA1 082136Z 04002KT 06/03 A3026 RMK A01 T00600028  RH  080%=      5-min Rain = 0
KVA1 082137Z 03002KT 06/03 A3026 RMK A01 T00600026  RH  079%=      5-min Rain = 0
KVA1 082138Z 01004KT 06/03 A3026 RMK A01 T00600027  RH  079%=      5-min Rain = 0
KVA1 082139Z 01004KT 06/03 A3026 RMK A01 T00600027  RH  079%=      5-min Rain = 0
KVA1 082140Z 03003KT 06/03 A3026 RMK A01 T00600027  RH  080%=      5-min Rain = 0
KVA1 082141Z 03003KT 06/03 A3026 RMK A01 T00590027  RH  079%=      5-min Rain = 0
KVA1 082142Z 05004KT 06/03 A3026 RMK A01 T00590027  RH  080%=      5-min Rain = 0
KVA1 082143Z 04003KT 06/03 A3026 RMK A01 T00590028  RH  080%=      5-min Rain = 0
KVA1 082144Z 05003KT 06/03 A3026 RMK A01 T00590028  RH  080%=      5-min Rain = 0
KVA1 082145Z 07003KT 06/03 A3026 RMK A01 T00600029  RH  081%=      5-min Rain = 0
KVA1 082146Z 03002KT 06/03 A3026 RMK A01 T00600028  RH  080%=      5-min Rain = 0
KVA1 082147Z 02002KT 06/03 A3026 RMK A01 T00600029  RH  080%=      5-min Rain = 0
KVA1 082148Z 02002KT 06/03 A3026 RMK A01 T00600030  RH  081%=      5-min Rain = 0
KVA1 082149Z 01002KT 06/03 A3026 RMK A01 T00610030  RH  080%=      5-min Rain = 0
KVA1 082150Z 01002KT 06/03 A3026 RMK A01 T00610028  RH  080%=      5-min Rain = 0
KVA1 082151Z 01002KT 06/03 A3026 RMK A01 T00610027  RH  079%=      5-min Rain = 0
KVA1 082152Z 01002KT 06/03 A3026 RMK A01 T00610026  RH  079%=      5-min Rain = 0
KVA1 082153Z 02002KT 06/03 A3026 RMK A01 T00600026  RH  079%=      5-min Rain = 0
KVA1 082154Z 01002KT 06/03 A3026 RMK A01 T00600026  RH  079%=      5-min Rain = 0
KVA1 082155Z 00001KT 06/03 A3026 RMK A01 T00600027  RH  079%=      5-min Rain = 0
KVA1 082156Z 34001KT 06/03 A3026 RMK A01 T00600026  RH  079%=      5-min Rain = 0
KVA1 082157Z 32001KT 06/03 A3026 RMK A01 T00600028  RH  080%=      5-min Rain = 0
KVA1 082158Z 30001KT 06/03 A3026 RMK A01 T00600027  RH  079%=      5-min Rain = 0
KVA1 082159Z 30000KT 06/03 A3026 RMK A01 T00610029  RH  080%=      5-min Rain = 0
KVA1 082200Z 11002KT 06/03 A3026 RMK A01 T00620032  RH  081%=      5-min Rain = 0
KVA1 082201Z 09002KT 06/03 A3026 RMK A01 T00630027  RH  078%=      5-min Rain = 0
KVA1 082202Z 12001KT 06/03 A3026 RMK A01 T00620026  RH  078%=      5-min Rain = 0
KVA1 082203Z 13001KT 06/03 A3026 RMK A01 T00620027  RH  079%=      5-min Rain = 0
KVA1 082204Z 15001KT 06/03 A3026 RMK A01 T00620028  RH  079%=      5-min Rain = 0
KVA1 082205Z 19000KT 06/03 A3026 RMK A01 T00620027  RH  078%=      5-min Rain = 0
KVA1 082206Z 06001KT 06/03 A3026 RMK A01 T00620027  RH  078%=      5-min Rain = 0
KVA1 082207Z 06001KT 06/03 A3026 RMK A01 T00620027  RH  078%=      5-min Rain = 0
KVA1 082208Z 04000KT 06/03 A3026 RMK A01 T00620027  RH  078%=      5-min Rain = 0
KVA1 082209Z 02001KT 06/03 A3026 RMK A01 T00630030  RH  079%=      5-min Rain = 0
KVA1 082210Z 03001KT 06/03 A3026 RMK A01 T00640031  RH  080%=      5-min Rain = 0
KVA1 082211Z 34000KT 06/03 A3026 RMK A01 T00640028  RH  078%=      5-min Rain = 0
KVA1 082212Z 05001KT 06/03 A3026 RMK A01 T00640029  RH  078%=      5-min Rain = 0
KVA1 082213Z 07002KT 06/03 A3026 RMK A01 T00640028  RH  078%=      5-min Rain = 0
KVA1 082214Z 05002KT 06/03 A3026 RMK A01 T00640028  RH  078%=      5-min Rain = 0
KVA1 082215Z 06001KT 06/03 A3026 RMK A01 T00640029  RH  078%=      5-min Rain = 0
KVA1 082216Z 05001KT 06/03 A3026 RMK A01 T00640029  RH  078%=      5-min Rain = 0
KVA1 082217Z 06000KT 06/03 A3026 RMK A01 T00640028  RH  078%=      5-min Rain = 0
KVA1 082218Z 00000KT 06/03 A3026 RMK A01 T00640028  RH  078%=      5-min Rain = 0
KVA1 082219Z 00000KT 06/03 A3026 RMK A01 T00640027  RH  077%=      5-min Rain = 0
KVA1 082220Z 00000KT 06/03 A3026 RMK A01 T00640027  RH  077%=      5-min Rain = 0
KVA1 082221Z 00000KT 06/03 A3026 RMK A01 T00640027  RH  077%=      5-min Rain = 0
KVA1 082222Z 00000KT 06/03 A3026 RMK A01 T00640028  RH  078%=      5-min Rain = 0
KVA1 082223Z 23000KT 07/03 A3026 RMK A01 T00650030  RH  078%=      5-min Rain = 0
KVA1 082224Z 23000KT 07/03 A3026 RMK A01 T00650027  RH  077%=      5-min Rain = 0
KVA1 082225Z 22001KT 07/03 A3026 RMK A01 T00650027  RH  077%=      5-min Rain = 0
KVA1 082226Z 23001KT 07/03 A3026 RMK A01 T00650030  RH  078%=      5-min Rain = 0
KVA1 082227Z 24001KT 07/03 A3026 RMK A01 T00660030  RH  078%=      5-min Rain = 0
KVA1 082228Z 24000KT 07/03 A3026 RMK A01 T00660030  RH  078%=      5-min Rain = 0
KVA1 082229Z 24001KT 07/03 A3026 RMK A01 T00660028  RH  077%=      5-min Rain = 0
KVA1 082230Z 22001KT 07/03 A3026 RMK A01 T00660029  RH  077%=      5-min Rain = 0
KVA1 082231Z 20000KT 07/03 A3026 RMK A01 T00660028  RH  077%=      5-min Rain = 0
KVA1 082232Z 20000KT 07/03 A3026 RMK A01 T00660027  RH  076%=      5-min Rain = 0
KVA1 082233Z 19000KT 07/03 A3026 RMK A01 T00660028  RH  077%=      5-min Rain = 0
KVA1 082234Z 19000KT 07/03 A3026 RMK A01 T00660028  RH  077%=      5-min Rain = 0
KVA1 082235Z 00000KT 07/03 A3026 RMK A01 T00660029  RH  077%=      5-min Rain = 0
KVA1 082236Z 00000KT 07/03 A3026 RMK A01 T00660029  RH  077%=      5-min Rain = 0
KVA1 082237Z 25000KT 07/03 A3026 RMK A01 T00660029  RH  077%=      5-min Rain = 0
KVA1 082238Z 24000KT 07/03 A3026 RMK A01 T00670031  RH  077%=      5-min Rain = 0
KVA1 082239Z 19001KT 07/03 A3026 RMK A01 T00670031  RH  077%=      5-min Rain = 0
KVA1 082240Z 18001KT 07/03 A3026 RMK A01 T00680030  RH  077%=      5-min Rain = 0
KVA1 082241Z 17003KT 07/03 A3026 RMK A01 T00680029  RH  076%=      5-min Rain = 0
KVA1 082242Z 16002KT 07/03 A3026 RMK A01 T00680030  RH  077%=      5-min Rain = 0
KVA1 082243Z 19001KT 07/03 A3026 RMK A01 T00680030  RH  077%=      5-min Rain = 0
KVA1 082244Z 19001KT 07/03 A3026 RMK A01 T00680032  RH  078%=      5-min Rain = 0
KVA1 082245Z 20002KT 07/03 A3026 RMK A01 T00680030  RH  076%=      5-min Rain = 0
KVA1 082246Z 18001KT 07/03 A3026 RMK A01 T00680030  RH  077%=      5-min Rain = 0
KVA1 082247Z 18001KT 07/03 A3026 RMK A01 T00680029  RH  076%=      5-min Rain = 0
KVA1 082248Z 17002KT 07/03 A3026 RMK A01 T00670030  RH  077%=      5-min Rain = 0
KVA1 082249Z 20001KT 07/03 A3026 RMK A01 T00680030  RH  077%=      5-min Rain = 0
KVA1 082250Z 20000KT 07/03 A3026 RMK A01 T00670028  RH  076%=      5-min Rain = 0
KVA1 082251Z 22000KT 07/03 A3026 RMK A01 T00680030  RH  077%=      5-min Rain = 0
KVA1 082252Z 23000KT 07/03 A3026 RMK A01 T00680030  RH  077%=      5-min Rain = 0
KVA1 082253Z 24001KT 07/03 A3026 RMK A01 T00670029  RH  077%=      5-min Rain = 0
KVA1 082254Z 24000KT 07/03 A3026 RMK A01 T00670029  RH  077%=      5-min Rain = 0
KVA1 082255Z 24000KT 07/03 A3026 RMK A01 T00670029  RH  077%=      5-min Rain = 0
KVA1 082256Z 00000KT 07/03 A3026 RMK A01 T00680029  RH  076%=      5-min Rain = 0
KVA1 082257Z 00000KT 07/03 A3026 RMK A01 T00680029  RH  076%=      5-min Rain = 0
KVA1 082258Z 25000KT 07/03 A3026 RMK A01 T00690031  RH  077%=      5-min Rain = 0
KVA1 082259Z 25000KT 07/03 A3026 RMK A01 T00690031  RH  077%=      5-min Rain = 0
KVA1 082300Z 25000KT 07/03 A3026 RMK A01 T00690032  RH  077%=      5-min Rain = 0
KVA1 082301Z 20001KT 07/03 A3026 RMK A01 T00690031  RH  076%=      5-min Rain = 0
KVA1 082302Z 22000KT 07/03 A3026 RMK A01 T00700031  RH  076%=      5-min Rain = 0
KVA1 082303Z 15001KT 07/03 A3026 RMK A01 T00690031  RH  077%=      5-min Rain = 0
KVA1 082304Z 16001KT 07/03 A3026 RMK A01 T00690031  RH  077%=      5-min Rain = 0
KVA1 082305Z 20002KT 07/03 A3026 RMK A01 T00690031  RH  077%=      5-min Rain = 0
KVA1 082306Z 18002KT 07/03 A3026 RMK A01 T00690032  RH  077%=      5-min Rain = 0
KVA1 082307Z 21002KT 07/03 A3026 RMK A01 T00690032  RH  077%=      5-min Rain = 0
KVA1 082308Z 20003KT 07/03 A3026 RMK A01 T00690033  RH  078%=      5-min Rain = 0
KVA1 082309Z 18003KT 07/03 A3026 RMK A01 T00700033  RH  077%=      5-min Rain = 0
KVA1 082310Z 19003KT 07/03 A3026 RMK A01 T00700034  RH  078%=      5-min Rain = 0
KVA1 082311Z 18002KT 07/03 A3026 RMK A01 T00700032  RH  076%=      5-min Rain = 0
KVA1 082312Z 19003KT 07/04 A3026 RMK A01 T00710036  RH  079%=      5-min Rain = 0
KVA1 082313Z 21002KT 07/04 A3026 RMK A01 T00710036  RH  078%=      5-min Rain = 0
KVA1 082314Z 19002KT 07/03 A3026 RMK A01 T00710033  RH  076%=      5-min Rain = 0
KVA1 082315Z 18003KT 07/03 A3026 RMK A01 T00710034  RH  077%=      5-min Rain = 0
KVA1 082316Z 18003KT 07/03 A3026 RMK A01 T00710034  RH  077%=      5-min Rain = 0
KVA1 082317Z 16003KT 07/03 A3026 RMK A01 T00710034  RH  077%=      5-min Rain = 0
KVA1 082318Z 16002KT 07/03 A3026 RMK A01 T00710033  RH  076%=      5-min Rain = 0
KVA1 082319Z 16002KT 07/03 A3026 RMK A01 T00710032  RH  076%=      5-min Rain = 0
KVA1 082320Z 15001KT 07/03 A3026 RMK A01 T00720034  RH  077%=      5-min Rain = 0
KVA1 082321Z 17003KT 07/03 A3026 RMK A01 T00730034  RH  076%=      5-min Rain = 0
KVA1 082322Z 17003KT 07/04 A3026 RMK A01 T00730035  RH  077%=      5-min Rain = 0
KVA1 082323Z 17004KT 07/03 A3026 RMK A01 T00740033  RH  075%=      5-min Rain = 0
KVA1 082324Z 18003KT 07/03 A3026 RMK A01 T00740034  RH  076%=      5-min Rain = 0
KVA1 082325Z 17003KT 07/04 A3026 RMK A01 T00730036  RH  077%=      5-min Rain = 0
KVA1 082326Z 17004KT 07/04 A3026 RMK A01 T00740035  RH  076%=      5-min Rain = 0
KVA1 082327Z 16004KT 07/03 A3026 RMK A01 T00730034  RH  076%=      5-min Rain = 0
KVA1 082328Z 16003KT 07/03 A3026 RMK A01 T00740034  RH  076%=      5-min Rain = 0
KVA1 082329Z 15002KT 07/03 A3026 RMK A01 T00740034  RH  076%=      5-min Rain = 0
KVA1 082330Z 16002KT 07/03 A3026 RMK A01 T00740034  RH  076%=      5-min Rain = 0
KVA1 082331Z 16003KT 08/04 A3026 RMK A01 T00750036  RH  076%=      5-min Rain = 0
KVA1 082332Z 15004KT 08/04 A3026 RMK A01 T00750036  RH  076%=      5-min Rain = 0
KVA1 082333Z 16004KT 07/04 A3026 RMK A01 T00740035  RH  076%=      5-min Rain = 0
KVA1 082334Z 16004KT 07/04 A3026 RMK A01 T00740036  RH  076%=      5-min Rain = 0
KVA1 082335Z 16004KT 07/04 A3026 RMK A01 T00740035  RH  076%=      5-min Rain = 0
KVA1 082336Z 16003KT 07/04 A3026 RMK A01 T00740036  RH  077%=      5-min Rain = 0
KVA1 082337Z 17004KT 07/04 A3026 RMK A01 T00740036  RH  077%=      5-min Rain = 0
KVA1 082338Z 17004KT 07/04 A3026 RMK A01 T00740036  RH  077%=      5-min Rain = 0
KVA1 082339Z 16004KT 07/04 A3026 RMK A01 T00730035  RH  077%=      5-min Rain = 0
KVA1 082340Z 16004KT 07/04 A3026 RMK A01 T00740035  RH  077%=      5-min Rain = 0
KVA1 082341Z 17004KT 07/04 A3026 RMK A01 T00730036  RH  077%=      5-min Rain = 0
KVA1 082342Z 15004KT 07/04 A3026 RMK A01 T00730037  RH  078%=      5-min Rain = 0
KVA1 082343Z 16004KT 07/04 A3026 RMK A01 T00730036  RH  078%=      5-min Rain = 0
KVA1 082344Z 17004KT 07/04 A3026 RMK A01 T00730037  RH  078%=      5-min Rain = 0
KVA1 082345Z 17004KT 07/04 A3026 RMK A01 T00730036  RH  077%=      5-min Rain = 0
KVA1 082346Z 15003KT 07/04 A3026 RMK A01 T00730037  RH  078%=      5-min Rain = 0
KVA1 082347Z 16005KT 07/04 A3026 RMK A01 T00730038  RH  078%=      5-min Rain = 0
KVA1 082348Z 16005KT 07/04 A3026 RMK A01 T00730037  RH  078%=      5-min Rain = 0
KVA1 082349Z 16004KT 07/04 A3026 RMK A01 T00730037  RH  078%=      5-min Rain = 0
KVA1 082350Z 15003KT 07/04 A3026 RMK A01 T00730036  RH  077%=      5-min Rain = 0
KVA1 082351Z 17003KT 07/04 A3027 RMK A01 T00730037  RH  078%=      5-min Rain = 0
KVA1 082352Z 17002KT 07/04 A3026 RMK A01 T00730039  RH  079%=      5-min Rain = 0
KVA1 082353Z 16002KT 07/04 A3026 RMK A01 T00730039  RH  079%=      5-min Rain = 0
KVA1 082354Z 17003KT 07/04 A3026 RMK A01 T00730037  RH  078%=      5-min Rain = 0
KVA1 082355Z 18004KT 07/04 A3026 RMK A01 T00730039  RH  079%=      5-min Rain = 0
KVA1 082356Z 18004KT 07/04 A3026 RMK A01 T00730038  RH  078%=      5-min Rain = 0
KVA1 082357Z 18004KT 07/04 A3026 RMK A01 T00730038  RH  078%=      5-min Rain = 0
KVA1 082358Z 18004KT 07/04 A3026 RMK A01 T00730040  RH  079%=      5-min Rain = 0
KVA1 082359Z 17004KT 07/04 A3026 RMK A01 T00740038  RH  078%=      5-min Rain = 0
KVA1 090000Z 17004KT 07/04 A3026 RMK A01 T00730038  RH  078%=      5-min Rain = 0
KVA1 090001Z 17003KT 07/04 A3026 RMK A01 T00730038  RH  078%=      5-min Rain = 0
KVA1 090002Z 17003KT 07/04 A3026 RMK A01 T00730038  RH  078%=      5-min Rain = 0
KVA1 090003Z 17004KT 07/04 A3026 RMK A01 T00740039  RH  079%=      5-min Rain = 0
KVA1 090004Z 17004KT 07/04 A3026 RMK A01 T00730040  RH  079%=      5-min Rain = 0
KVA1 090005Z 17003KT 07/04 A3026 RMK A01 T00730040  RH  079%=      5-min Rain = 0
KVA1 090006Z 17004KT 07/04 A3026 RMK A01 T00730041  RH  080%=      5-min Rain = 0
KVA1 090007Z 17004KT 07/04 A3026 RMK A01 T00740040  RH  079%=      5-min Rain = 0
KVA1 090008Z 18003KT 07/04 A3026 RMK A01 T00740040  RH  079%=      5-min Rain = 0
KVA1 090009Z 19004KT 07/04 A3026 RMK A01 T00740041  RH  079%=      5-min Rain = 0
KVA1 090010Z 17005KT 07/04 A3026 RMK A01 T00740039  RH  079%=      5-min Rain = 0
KVA1 090011Z 18004KT 07/04 A3026 RMK A01 T00740040  RH  079%=      5-min Rain = 0
KVA1 090012Z 19003KT 07/04 A3026 RMK A01 T00740040  RH  079%=      5-min Rain = 0
KVA1 090013Z 19004KT 07/04 A3026 RMK A01 T00740041  RH  079%=      5-min Rain = 0
KVA1 090014Z 18003KT 07/04 A3026 RMK A01 T00740041  RH  080%=      5-min Rain = 0
KVA1 090015Z 18002KT 07/04 A3026 RMK A01 T00740039  RH  078%=      5-min Rain = 0
KVA1 090016Z 18003KT 07/04 A3026 RMK A01 T00740038  RH  078%=      5-min Rain = 0
KVA1 090017Z 17003KT 07/04 A3026 RMK A01 T00740040  RH  079%=      5-min Rain = 0
KVA1 090018Z 17002KT 07/04 A3026 RMK A01 T00740041  RH  079%=      5-min Rain = 0
KVA1 090019Z 18003KT 07/04 A3026 RMK A01 T00740041  RH  079%=      5-min Rain = 0
KVA1 090020Z 21004KT 07/04 A3026 RMK A01 T00740041  RH  079%=      5-min Rain = 0
KVA1 090021Z 21003KT 07/04 A3026 RMK A01 T00740040  RH  079%=      5-min Rain = 0
KVA1 090022Z 20003KT 08/04 A3026 RMK A01 T00750040  RH  078%=      5-min Rain = 0
KVA1 090023Z 21003KT 08/04 A3026 RMK A01 T00750039  RH  078%=      5-min Rain = 0
KVA1 090024Z 21003KT 08/04 A3026 RMK A01 T00750040  RH  078%=      5-min Rain = 0
KVA1 090025Z 21003KT 08/04 A3026 RMK A01 T00750041  RH  079%=      5-min Rain = 0
KVA1 090026Z 23003KT 07/04 A3026 RMK A01 T00740041  RH  079%=      5-min Rain = 0
KVA1 090027Z 22002KT 07/04 A3026 RMK A01 T00740040  RH  079%=      5-min Rain = 0
KVA1 090028Z 22001KT 07/04 A3026 RMK A01 T00740040  RH  079%=      5-min Rain = 0
KVA1 090029Z 23000KT 07/04 A3027 RMK A01 T00740040  RH  079%=      5-min Rain = 0
KVA1 090030Z 00001KT 07/04 A3027 RMK A01 T00740041  RH  080%=      5-min Rain = 0
KVA1 090031Z 02004KT 07/04 A3027 RMK A01 T00730041  RH  080%=      5-min Rain = 0
KVA1 090032Z 03004KT 07/04 A3027 RMK A01 T00710041  RH  081%=      5-min Rain = 0
KVA1 090033Z 04005KT 07/04 A3027 RMK A01 T00700042  RH  082%=      5-min Rain = 0
KVA1 090034Z 06005KT 07/04 A3027 RMK A01 T00690042  RH  083%=      5-min Rain = 0
KVA1 090035Z 06004KT 07/04 A3027 RMK A01 T00680042  RH  083%=      5-min Rain = 0
KVA1 090036Z 06003KT 07/04 A3027 RMK A01 T00670041  RH  084%=      5-min Rain = 0
KVA1 090037Z 06003KT 07/04 A3027 RMK A01 T00670041  RH  084%=      5-min Rain = 0
KVA1 090038Z 05002KT 07/04 A3027 RMK A01 T00660041  RH  084%=      5-min Rain = 0
KVA1 090039Z 04002KT 07/04 A3027 RMK A01 T00660040  RH  084%=      5-min Rain = 0
KVA1 090040Z 02004KT 07/04 A3027 RMK A01 T00660041  RH  084%=      5-min Rain = 0
KVA1 090041Z 03006KT 07/04 A3027 RMK A01 T00650041  RH  085%=      5-min Rain = 0
KVA1 090042Z 04005KT 06/04 A3027 RMK A01 T00640041  RH  085%=      5-min Rain = 0
KVA1 090043Z 04005KT 06/04 A3027 RMK A01 T00630040  RH  085%=      5-min Rain = 0
KVA1 090044Z 04004KT 06/04 A3027 RMK A01 T00620040  RH  086%=      5-min Rain = 0
KVA1 090045Z 03004KT 06/04 A3027 RMK A01 T00620039  RH  085%=      5-min Rain = 0
KVA1 090046Z 03004KT 06/04 A3027 RMK A01 T00610039  RH  086%=      5-min Rain = 0
KVA1 090047Z 02005KT 06/04 A3027 RMK A01 T00600039  RH  086%=      5-min Rain = 0
KVA1 090048Z 02005KT 06/04 A3027 RMK A01 T00590038  RH  086%=      5-min Rain = 0
KVA1 090049Z 02004KT 06/04 A3027 RMK A01 T00590038  RH  087%=      5-min Rain = 0
KVA1 090050Z 03004KT 06/04 A3027 RMK A01 T00580038  RH  087%=      5-min Rain = 0
KVA1 090051Z 03004KT 06/04 A3027 RMK A01 T00580038  RH  087%=      5-min Rain = 0
KVA1 090052Z 03004KT 06/04 A3027 RMK A01 T00570038  RH  087%=      5-min Rain = 0
KVA1 090053Z 01004KT 06/04 A3027 RMK A01 T00570038  RH  087%=      5-min Rain = 0
KVA1 090054Z 01004KT 06/04 A3027 RMK A01 T00560038  RH  088%=      5-min Rain = 0
KVA1 090055Z 00003KT 06/04 A3027 RMK A01 T00560037  RH  088%=      5-min Rain = 0
KVA1 090056Z 36003KT 06/04 A3027 RMK A01 T00550037  RH  088%=      5-min Rain = 0
KVA1 090057Z 01003KT 06/04 A3027 RMK A01 T00550037  RH  088%=      5-min Rain = 0
KVA1 090058Z 02003KT 06/04 A3027 RMK A01 T00550037  RH  089%=      5-min Rain = 0
KVA1 090059Z 01003KT 05/04 A3027 RMK A01 T00540037  RH  089%=      5-min Rain = 0
KVA1 090100Z 02004KT 05/04 A3027 RMK A01 T00540037  RH  089%=      5-min Rain = 0
KVA1 090101Z 02004KT 05/04 A3027 RMK A01 T00530037  RH  089%=      5-min Rain = 0
KVA1 090102Z 02004KT 05/04 A3027 RMK A01 T00530036  RH  089%=      5-min Rain = 0
KVA1 090103Z 01004KT 05/04 A3027 RMK A01 T00520036  RH  089%=      5-min Rain = 0
KVA1 090104Z 02003KT 05/04 A3027 RMK A01 T00520037  RH  090%=      5-min Rain = 0
KVA1 090105Z 04003KT 05/04 A3027 RMK A01 T00520036  RH  090%=      5-min Rain = 0
KVA1 090106Z 04003KT 05/04 A3027 RMK A01 T00510036  RH  090%=      5-min Rain = 0
KVA1 090107Z 03002KT 05/04 A3027 RMK A01 T00510036  RH  090%=      5-min Rain = 0
KVA1 090108Z 02001KT 05/04 A3027 RMK A01 T00510036  RH  090%=      5-min Rain = 0
KVA1 090109Z 01001KT 05/04 A3027 RMK A01 T00500036  RH  090%=      5-min Rain = 0
KVA1 090110Z 01001KT 05/04 A3027 RMK A01 T00500036  RH  090%=      5-min Rain = 0
KVA1 090111Z 01001KT 05/04 A3027 RMK A01 T00500036  RH  091%=      5-min Rain = 0
KVA1 090112Z 01001KT 05/04 A3027 RMK A01 T00490035  RH  091%=      5-min Rain = 0
KVA1 090113Z 01001KT 05/04 A3028 RMK A01 T00490035  RH  091%=      5-min Rain = 0
KVA1 090114Z 01001KT 05/04 A3028 RMK A01 T00490035  RH  091%=      5-min Rain = 0
KVA1 090115Z 01001KT 05/04 A3028 RMK A01 T00480035  RH  091%=      5-min Rain = 0
KVA1 090116Z 01001KT 05/04 A3028 RMK A01 T00480035  RH  091%=      5-min Rain = 0
KVA1 090117Z 02001KT 05/04 A3028 RMK A01 T00470035  RH  091%=      5-min Rain = 0
KVA1 090118Z 02000KT 05/03 A3028 RMK A01 T00470034  RH  091%=      5-min Rain = 0
KVA1 090119Z 00000KT 05/03 A3028 RMK A01 T00470034  RH  092%=      5-min Rain = 0
KVA1 090120Z 00000KT 05/03 A3028 RMK A01 T00470034  RH  092%=      5-min Rain = 0
KVA1 090121Z 00000KT 05/03 A3028 RMK A01 T00460034  RH  092%=      5-min Rain = 0
KVA1 090122Z 00000KT 05/03 A3028 RMK A01 T00460034  RH  092%=      5-min Rain = 0
KVA1 090123Z 00000KT 05/03 A3028 RMK A01 T00450034  RH  092%=      5-min Rain = 0
KVA1 090124Z 00000KT 05/03 A3028 RMK A01 T00450033  RH  092%=      5-min Rain = 0
KVA1 090125Z 00000KT 05/03 A3028 RMK A01 T00450034  RH  092%=      5-min Rain = 0
KVA1 090126Z 00000KT 05/03 A3028 RMK A01 T00450034  RH  093%=      5-min Rain = 0
KVA1 090127Z 00000KT 05/03 A3028 RMK A01 T00450034  RH  093%=      5-min Rain = 0
KVA1 090128Z 22000KT 05/03 A3028 RMK A01 T00450034  RH  093%=      5-min Rain = 0
KVA1 090129Z 22001KT 05/04 A3028 RMK A01 T00450035  RH  093%=      5-min Rain = 0
KVA1 090130Z 22000KT 05/04 A3028 RMK A01 T00450035  RH  094%=      5-min Rain = 0
KVA1 090131Z 00000KT 05/04 A3028 RMK A01 T00450035  RH  094%=      5-min Rain = 0
KVA1 090132Z 22000KT 04/04 A3028 RMK A01 T00440035  RH  094%=      5-min Rain = 0
KVA1 090133Z 22002KT 05/04 A3028 RMK A01 T00450035  RH  094%=      5-min Rain = 0
KVA1 090134Z 19001KT 04/03 A3028 RMK A01 T00440034  RH  094%=      5-min Rain = 0
KVA1 090135Z 12001KT 04/03 A3028 RMK A01 T00440034  RH  094%=      5-min Rain = 0
KVA1 090136Z 11001KT 04/03 A3028 RMK A01 T00440034  RH  094%=      5-min Rain = 0
KVA1 090137Z 11001KT 04/03 A3028 RMK A01 T00430034  RH  094%=      5-min Rain = 0
KVA1 090138Z 22001KT 04/03 A3028 RMK A01 T00430034  RH  094%=      5-min Rain = 0
KVA1 090139Z 20001KT 04/03 A3028 RMK A01 T00410030  RH  093%=      5-min Rain = 0
KVA1 090140Z 20001KT 04/03 A3028 RMK A01 T00400028  RH  092%=      5-min Rain = 0
KVA1 090141Z 22001KT 04/03 A3028 RMK A01 T00390028  RH  093%=      5-min Rain = 0
KVA1 090142Z 22000KT 04/03 A3028 RMK A01 T00390029  RH  093%=      5-min Rain = 0
KVA1 090143Z 00000KT 04/03 A3028 RMK A01 T00390029  RH  094%=      5-min Rain = 0
KVA1 090144Z 00000KT 04/03 A3028 RMK A01 T00390030  RH  094%=      5-min Rain = 0
KVA1 090145Z 00000KT 04/03 A3028 RMK A01 T00390030  RH  094%=      5-min Rain = 0
KVA1 090146Z 00000KT 04/03 A3028 RMK A01 T00380029  RH  094%=      5-min Rain = 0
KVA1 090147Z 00000KT 04/03 A3028 RMK A01 T00380029  RH  094%=      5-min Rain = 0
KVA1 090148Z 00000KT 04/03 A3028 RMK A01 T00390031  RH  094%=      5-min Rain = 0
KVA1 090149Z 30000KT 04/03 A3028 RMK A01 T00390031  RH  095%=      5-min Rain = 0
KVA1 090150Z 30002KT 04/03 A3028 RMK A01 T00380030  RH  094%=      5-min Rain = 0
KVA1 090151Z 31002KT 04/03 A3028 RMK A01 T00370027  RH  094%=      5-min Rain = 0
KVA1 090152Z 32001KT 04/03 A3028 RMK A01 T00360027  RH  094%=      5-min Rain = 0
KVA1 090153Z 34001KT 04/03 A3028 RMK A01 T00350027  RH  094%=      5-min Rain = 0
KVA1 090154Z 34001KT 04/03 A3028 RMK A01 T00350027  RH  094%=      5-min Rain = 0
KVA1 090155Z 34001KT 04/03 A3028 RMK A01 T00350027  RH  095%=      5-min Rain = 0
KVA1 090156Z 34000KT 03/03 A3028 RMK A01 T00340027  RH  095%=      5-min Rain = 0
KVA1 090157Z 00000KT 03/03 A3028 RMK A01 T00340027  RH  095%=      5-min Rain = 0
KVA1 090158Z 00000KT 03/03 A3028 RMK A01 T00340027  RH  095%=      5-min Rain = 0
KVA1 090159Z 00000KT 03/03 A3028 RMK A01 T00340027  RH  095%=      5-min Rain = 0
KVA1 090200Z 00000KT 04/03 A3028 RMK A01 T00350028  RH  096%=      5-min Rain = 0
KVA1 090201Z 00000KT 04/03 A3028 RMK A01 T00350029  RH  096%=      5-min Rain = 0
KVA1 090202Z 00000KT 04/03 A3028 RMK A01 T00350028  RH  095%=      5-min Rain = 0
KVA1 090203Z 00000KT 03/03 A3028 RMK A01 T00330026  RH  095%=      5-min Rain = 0
KVA1 090204Z 00000KT 03/03 A3028 RMK A01 T00330025  RH  095%=      5-min Rain = 0
KVA1 090205Z 00000KT 03/03 A3028 RMK A01 T00320025  RH  095%=      5-min Rain = 0
KVA1 090206Z 00000KT 03/03 A3029 RMK A01 T00320025  RH  095%=      5-min Rain = 0
KVA1 090207Z 24001KT 03/03 A3029 RMK A01 T00330027  RH  096%=      5-min Rain = 0
KVA1 090208Z 21002KT 03/03 A3029 RMK A01 T00340028  RH  096%=      5-min Rain = 0
KVA1 090209Z 20002KT 04/03 A3029 RMK A01 T00350029  RH  096%=      5-min Rain = 0
KVA1 090210Z 19002KT 04/03 A3029 RMK A01 T00360030  RH  096%=      5-min Rain = 0
KVA1 090211Z 19002KT 04/03 A3029 RMK A01 T00370031  RH  096%=      5-min Rain = 0
KVA1 090212Z 18002KT 04/03 A3029 RMK A01 T00360030  RH  096%=      5-min Rain = 0
KVA1 090213Z 22003KT 04/03 A3029 RMK A01 T00360029  RH  095%=      5-min Rain = 0
KVA1 090214Z 20003KT 04/03 A3029 RMK A01 T00360029  RH  095%=      5-min Rain = 0
KVA1 090215Z 19003KT 04/03 A3029 RMK A01 T00360029  RH  095%=      5-min Rain = 0
KVA1 090216Z 19004KT 04/03 A3029 RMK A01 T00370030  RH  095%=      5-min Rain = 0
KVA1 090217Z 18004KT 04/03 A3029 RMK A01 T00380031  RH  096%=      5-min Rain = 0
KVA1 090218Z 21004KT 04/04 A3029 RMK A01 T00410035  RH  096%=      5-min Rain = 0
KVA1 090219Z 21004KT 04/03 A3029 RMK A01 T00410034  RH  095%=      5-min Rain = 0
KVA1 090220Z 19006KT 04/03 A3029 RMK A01 T00410032  RH  094%=      5-min Rain = 0
KVA1 090221Z 20005KT 04/03 A3028 RMK A01 T00410031  RH  094%=      5-min Rain = 0
KVA1 090222Z 20005KT 04/03 A3028 RMK A01 T00400031  RH  093%=      5-min Rain = 0
KVA1 090223Z 20005KT 04/03 A3028 RMK A01 T00400030  RH  093%=      5-min Rain = 0
KVA1 090224Z 19005KT 04/03 A3028 RMK A01 T00400030  RH  094%=      5-min Rain = 0
KVA1 090225Z 19006KT 04/03 A3029 RMK A01 T00400031  RH  094%=      5-min Rain = 0
KVA1 090226Z 19007KT 04/03 A3029 RMK A01 T00410031  RH  094%=      5-min Rain = 0
KVA1 090227Z 19007KT 04/03 A3029 RMK A01 T00420033  RH  094%=      5-min Rain = 0
KVA1 090228Z 20006KT 05/04 A3029 RMK A01 T00450036  RH  094%=      5-min Rain = 0
KVA1 090229Z 20006KT 05/04 A3029 RMK A01 T00490039  RH  093%=      5-min Rain = 0
KVA1 090230Z 19006KT 05/04 A3029 RMK A01 T00510038  RH  092%=      5-min Rain = 0
KVA1 090231Z 20005KT 05/04 A3029 RMK A01 T00510036  RH  090%=      5-min Rain = 0
KVA1 090232Z 21006KT 05/04 A3029 RMK A01 T00510036  RH  090%=      5-min Rain = 0
KVA1 090233Z 20006KT 05/04 A3029 RMK A01 T00520037  RH  090%=      5-min Rain = 0
KVA1 090234Z 19007KT 05/04 A3029 RMK A01 T00520035  RH  089%=      5-min Rain = 0
KVA1 090235Z 20007KT 05/04 A3029 RMK A01 T00520035  RH  089%=      5-min Rain = 0
KVA1 090236Z 20006KT 05/04 A3029 RMK A01 T00520035  RH  089%=      5-min Rain = 0
KVA1 090237Z 19006KT 05/03 A3028 RMK A01 T00510034  RH  089%=      5-min Rain = 0
KVA1 090238Z 19006KT 05/03 A3029 RMK A01 T00500034  RH  090%=      5-min Rain = 0
KVA1 090239Z 20007KT 05/04 A3029 RMK A01 T00500036  RH  090%=      5-min Rain = 0
KVA1 090240Z 19007KT 05/04 A3029 RMK A01 T00510036  RH  090%=      5-min Rain = 0
KVA1 090241Z 19007KT 05/04 A3029 RMK A01 T00510035  RH  089%=      5-min Rain = 0
KVA1 090242Z 20006KT 05/04 A3028 RMK A01 T00510035  RH  089%=      5-min Rain = 0
KVA1 090243Z 21006KT 05/04 A3029 RMK A01 T00520035  RH  089%=      5-min Rain = 0
KVA1 090244Z 20007KT 05/04 A3029 RMK A01 T00540038  RH  090%=      5-min Rain = 0
KVA1 090245Z 20007KT 06/04 A3029 RMK A01 T00560039  RH  089%=      5-min Rain = 0
KVA1 090246Z 20008KT 06/04 A3028 RMK A01 T00570039  RH  088%=      5-min Rain = 0
KVA1 090247Z 21007KT 06/04 A3028 RMK A01 T00570038  RH  088%=      5-min Rain = 0
KVA1 090248Z 21007KT 06/04 A3028 RMK A01 T00560038  RH  088%=      5-min Rain = 0
KVA1 090249Z 21007KT 06/04 A3028 RMK A01 T00560038  RH  088%=      5-min Rain = 0
KVA1 090250Z 21007KT 06/04 A3028 RMK A01 T00560038  RH  088%=      5-min Rain = 0
KVA1 090251Z 21008KT 06/04 A3028 RMK A01 T00560038  RH  088%=      5-min Rain = 0
KVA1 090252Z 21007KT 06/04 A3028 RMK A01 T00580039  RH  088%=      5-min Rain = 0
KVA1 090253Z 21008KT 06/04 A3028 RMK A01 T00580039  RH  088%=      5-min Rain = 0
KVA1 090254Z 21007KT 06/04 A3028 RMK A01 T00580039  RH  088%=      5-min Rain = 0
KVA1 090255Z 21009KT 06/04 A3028 RMK A01 T00580039  RH  088%=      5-min Rain = 0
KVA1 090256Z 20007KT 06/04 A3028 RMK A01 T00580040  RH  088%=      5-min Rain = 0
KVA1 090257Z 24005KT 06/04 A3028 RMK A01 T00600040  RH  087%=      5-min Rain = 0
KVA1 090258Z 22005KT 06/04 A3028 RMK A01 T00590039  RH  087%=      5-min Rain = 0
KVA1 090259Z 22007KT 06/04 A3029 RMK A01 T00580039  RH  087%=      5-min Rain = 0
KVA1 090300Z 21008KT 06/04 A3029 RMK A01 T00580039  RH  088%=      5-min Rain = 0
KVA1 090301Z 22008KT 06/04 A3028 RMK A01 T00580040  RH  088%=      5-min Rain = 0
KVA1 090302Z 23008KT 06/04 A3029 RMK A01 T00590040  RH  088%=      5-min Rain = 0
KVA1 090303Z 22007KT 06/04 A3029 RMK A01 T00600040  RH  087%=      5-min Rain = 0
KVA1 090304Z 21008KT 06/04 A3029 RMK A01 T00600039  RH  087%=      5-min Rain = 0
KVA1 090305Z 21007KT 06/04 A3029 RMK A01 T00580038  RH  087%=      5-min Rain = 0
KVA1 090306Z 21007KT 06/04 A3029 RMK A01 T00560037  RH  088%=      5-min Rain = 0
KVA1 090307Z 21007KT 05/04 A3029 RMK A01 T00540037  RH  088%=      5-min Rain = 0
KVA1 090308Z 21008KT 05/04 A3029 RMK A01 T00530037  RH  089%=      5-min Rain = 0
KVA1 090309Z 21007KT 05/04 A3029 RMK A01 T00520036  RH  090%=      5-min Rain = 0
KVA1 090310Z 21007KT 05/04 A3029 RMK A01 T00510036  RH  090%=      5-min Rain = 0
KVA1 090311Z 20007KT 05/04 A3029 RMK A01 T00500036  RH  091%=      5-min Rain = 0
KVA1 090312Z 20007KT 05/04 A3029 RMK A01 T00500036  RH  091%=      5-min Rain = 0
KVA1 090313Z 20009KT 05/04 A3029 RMK A01 T00500036  RH  091%=      5-min Rain = 0
KVA1 090314Z 20008KT 05/04 A3029 RMK A01 T00490036  RH  091%=      5-min Rain = 0
KVA1 090315Z 20007KT 05/04 A3029 RMK A01 T00500036  RH  091%=      5-min Rain = 0
KVA1 090316Z 21008KT 05/04 A3029 RMK A01 T00500036  RH  091%=      5-min Rain = 0
KVA1 090317Z 20009KT 05/04 A3029 RMK A01 T00500036  RH  091%=      5-min Rain = 0
KVA1 090318Z 21008KT 05/04 A3029 RMK A01 T00500036  RH  091%=      5-min Rain = 0
KVA1 090319Z 21006KT 05/04 A3029 RMK A01 T00490035  RH  091%=      5-min Rain = 0
KVA1 090320Z 22006KT 05/04 A3029 RMK A01 T00490035  RH  090%=      5-min Rain = 0
KVA1 090321Z 23006KT 05/04 A3029 RMK A01 T00500035  RH  090%=      5-min Rain = 0
KVA1 090322Z 21006KT 05/03 A3029 RMK A01 T00490034  RH  090%=      5-min Rain = 0
KVA1 090323Z 21008KT 05/03 A3029 RMK A01 T00480034  RH  091%=      5-min Rain = 0
KVA1 090324Z 22008KT 05/03 A3029 RMK A01 T00480034  RH  091%=      5-min Rain = 0
KVA1 090325Z 21008KT 05/04 A3029 RMK A01 T00480035  RH  091%=      5-min Rain = 0
KVA1 090326Z 21008KT 05/03 A3029 RMK A01 T00480034  RH  091%=      5-min Rain = 0
KVA1 090327Z 21007KT 05/03 A3029 RMK A01 T00480034  RH  091%=      5-min Rain = 0
KVA1 090328Z 22006KT 05/04 A3029 RMK A01 T00480035  RH  091%=      5-min Rain = 0
KVA1 090329Z 22006KT 05/03 A3029 RMK A01 T00480034  RH  091%=      5-min Rain = 0
KVA1 090330Z 22006KT 05/03 A3029 RMK A01 T00470034  RH  091%=      5-min Rain = 0
KVA1 090331Z 21006KT 05/03 A3029 RMK A01 T00470034  RH  091%=      5-min Rain = 0
KVA1 090332Z 21007KT 05/03 A3029 RMK A01 T00470034  RH  091%=      5-min Rain = 0
KVA1 090333Z 21007KT 05/03 A3029 RMK A01 T00470034  RH  092%=      5-min Rain = 0
KVA1 090334Z 22006KT 05/04 A3029 RMK A01 T00470035  RH  092%=      5-min Rain = 0
KVA1 090335Z 20005KT 05/04 A3029 RMK A01 T00490036  RH  092%=      5-min Rain = 0
KVA1 090336Z 20006KT 05/04 A3029 RMK A01 T00490035  RH  091%=      5-min Rain = 0
KVA1 090337Z 20007KT 05/04 A3029 RMK A01 T00490035  RH  090%=      5-min Rain = 0
KVA1 090338Z 20008KT 05/04 A3029 RMK A01 T00490035  RH  091%=      5-min Rain = 0
KVA1 090339Z 20009KT 05/04 A3029 RMK A01 T00490035  RH  091%=      5-min Rain = 0
KVA1 090340Z 19008KT 05/04 A3029 RMK A01 T00490035  RH  091%=      5-min Rain = 0
KVA1 090341Z 20007KT 05/03 A3029 RMK A01 T00490034  RH  091%=      5-min Rain = 0
KVA1 090342Z 20008KT 05/03 A3029 RMK A01 T00480034  RH  090%=      5-min Rain = 0
KVA1 090343Z 19008KT 05/03 A3029 RMK A01 T00480034  RH  091%=      5-min Rain = 0
KVA1 090344Z 20008KT 05/03 A3029 RMK A01 T00480034  RH  091%=      5-min Rain = 0
KVA1 090345Z 20009KT 05/04 A3029 RMK A01 T00480035  RH  091%=      5-min Rain = 0
KVA1 090346Z 20007KT 05/04 A3029 RMK A01 T00480035  RH  091%=      5-min Rain = 0
KVA1 090347Z 20007KT 05/04 A3029 RMK A01 T00490035  RH  091%=      5-min Rain = 0
KVA1 090348Z 20007KT 05/04 A3029 RMK A01 T00490035  RH  091%=      5-min Rain = 0
KVA1 090349Z 20007KT 05/04 A3029 RMK A01 T00480035  RH  091%=      5-min Rain = 0
KVA1 090350Z 21006KT 05/04 A3029 RMK A01 T00480035  RH  091%=      5-min Rain = 0
KVA1 090351Z 22006KT 05/04 A3029 RMK A01 T00480035  RH  091%=      5-min Rain = 0
KVA1 090352Z 22006KT 05/03 A3029 RMK A01 T00470034  RH  091%=      5-min Rain = 0
KVA1 090353Z 22006KT 05/03 A3029 RMK A01 T00470034  RH  091%=      5-min Rain = 0
KVA1 090354Z 21007KT 05/03 A3029 RMK A01 T00460033  RH  092%=      5-min Rain = 0
KVA1 090355Z 22008KT 05/03 A3029 RMK A01 T00450033  RH  092%=      5-min Rain = 0
KVA1 090356Z 21009KT 05/03 A3029 RMK A01 T00450034  RH  092%=      5-min Rain = 0
KVA1 090357Z 21009KT 05/03 A3029 RMK A01 T00450034  RH  092%=      5-min Rain = 0
KVA1 090358Z 22010KT 05/03 A3029 RMK A01 T00450034  RH  092%=      5-min Rain = 0
KVA1 090359Z 22010KT 05/03 A3029 RMK A01 T00450034  RH  092%=      5-min Rain = 0
KVA1 090400Z 22010KT 05/03 A3029 RMK A01 T00460034  RH  092%=      5-min Rain = 0
KVA1 090401Z 22010KT 05/03 A3029 RMK A01 T00460034  RH  092%=      5-min Rain = 0
KVA1 090402Z 22008KT 05/04 A3029 RMK A01 T00470035  RH  092%=      5-min Rain = 0
KVA1 090403Z 22008KT 05/03 A3029 RMK A01 T00470034  RH  092%=      5-min Rain = 0
KVA1 090404Z 22006KT 05/04 A3029 RMK A01 T00470035  RH  092%=      5-min Rain = 0
KVA1 090405Z 22006KT 05/04 A3029 RMK A01 T00480035  RH  091%=      5-min Rain = 0
KVA1 090406Z 23007KT 05/04 A3029 RMK A01 T00480035  RH  091%=      5-min Rain = 0
KVA1 090407Z 22008KT 05/04 A3029 RMK A01 T00490036  RH  091%=      5-min Rain = 0
KVA1 090408Z 23008KT 05/04 A3029 RMK A01 T00520039  RH  091%=      5-min Rain = 0
KVA1 090409Z 23007KT 06/04 A3029 RMK A01 T00560042  RH  090%=      5-min Rain = 0
KVA1 090410Z 24007KT 06/04 A3029 RMK A01 T00590042  RH  089%=      5-min Rain = 0
KVA1 090411Z 23008KT 06/04 A3029 RMK A01 T00600041  RH  087%=      5-min Rain = 0
KVA1 090412Z 24007KT 06/04 A3029 RMK A01 T00610040  RH  087%=      5-min Rain = 0
KVA1 090413Z 24010KT 06/04 A3029 RMK A01 T00600039  RH  086%=      5-min Rain = 0
KVA1 090414Z 23009KT 06/04 A3029 RMK A01 T00600039  RH  086%=      5-min Rain = 0
KVA1 090415Z 24007KT 06/04 A3029 RMK A01 T00590038  RH  086%=      5-min Rain = 0
KVA1 090416Z 24007KT 06/04 A3029 RMK A01 T00580038  RH  087%=      5-min Rain = 0
KVA1 090417Z 24008KT 06/04 A3029 RMK A01 T00570038  RH  087%=      5-min Rain = 0
KVA1 090418Z 24009KT 06/04 A3029 RMK A01 T00580039  RH  088%=      5-min Rain = 0
KVA1 090419Z 24007KT 06/04 A3029 RMK A01 T00580039  RH  087%=      5-min Rain = 0
KVA1 090420Z 24007KT 06/04 A3029 RMK A01 T00570038  RH  087%=      5-min Rain = 0
KVA1 090421Z 23007KT 06/04 A3029 RMK A01 T00570038  RH  087%=      5-min Rain = 0
KVA1 090422Z 23008KT 06/04 A3029 RMK A01 T00570039  RH  088%=      5-min Rain = 0
KVA1 090423Z 23008KT 06/04 A3029 RMK A01 T00590041  RH  088%=      5-min Rain = 0
KVA1 090424Z 23008KT 06/04 A3029 RMK A01 T00610041  RH  087%=      5-min Rain = 0
KVA1 090425Z 23008KT 06/04 A3029 RMK A01 T00630042  RH  086%=      5-min Rain = 0
KVA1 090426Z 23008KT 06/04 A3029 RMK A01 T00640041  RH  086%=      5-min Rain = 0
KVA1 090427Z 23010KT 07/04 A3029 RMK A01 T00650042  RH  085%=      5-min Rain = 0
KVA1 090428Z 23010KT 07/04 A3029 RMK A01 T00660043  RH  085%=      5-min Rain = 0
KVA1 090429Z 23008KT 07/04 A3029 RMK A01 T00670042  RH  084%=      5-min Rain = 0
KVA1 090430Z 23009KT 07/04 A3029 RMK A01 T00670041  RH  084%=      5-min Rain = 0
KVA1 090431Z 22009KT 07/04 A3029 RMK A01 T00660041  RH  084%=      5-min Rain = 0
KVA1 090432Z 23009KT 07/04 A303 RMK A01 T00650040  RH  084%=      5-min Rain = 0
KVA1 090433Z 22009KT 06/04 A303 RMK A01 T00640040  RH  085%=      5-min Rain = 0
KVA1 090434Z 22008KT 06/04 A303 RMK A01 T00630040  RH  085%=      5-min Rain = 0
KVA1 090435Z 22008KT 06/04 A303 RMK A01 T00620038  RH  085%=      5-min Rain = 0
KVA1 090436Z 22008KT 06/04 A303 RMK A01 T00600037  RH  085%=      5-min Rain = 0
KVA1 090437Z 22008KT 06/04 A303 RMK A01 T00580036  RH  086%=      5-min Rain = 0
KVA1 090438Z 22007KT 06/03 A303 RMK A01 T00550034  RH  086%=      5-min Rain = 0
KVA1 090439Z 22007KT 05/03 A303 RMK A01 T00530033  RH  087%=      5-min Rain = 0
KVA1 090440Z 22006KT 05/03 A303 RMK A01 T00510033  RH  088%=      5-min Rain = 0
KVA1 090441Z 21006KT 05/03 A303 RMK A01 T00500033  RH  089%=      5-min Rain = 0
KVA1 090442Z 20007KT 05/03 A303 RMK A01 T00490033  RH  089%=      5-min Rain = 0
KVA1 090443Z 20008KT 05/03 A303 RMK A01 T00480032  RH  089%=      5-min Rain = 0
KVA1 090444Z 20009KT 05/03 A303 RMK A01 T00470032  RH  090%=      5-min Rain = 0
KVA1 090445Z 21009KT 05/03 A303 RMK A01 T00460032  RH  090%=      5-min Rain = 0
KVA1 090446Z 21008KT 05/03 A303 RMK A01 T00460032  RH  090%=      5-min Rain = 0
KVA1 090447Z 21009KT 05/03 A303 RMK A01 T00460031  RH  090%=      5-min Rain = 0
KVA1 090448Z 20009KT 05/03 A303 RMK A01 T00450031  RH  091%=      5-min Rain = 0
KVA1 090449Z 20010KT 05/03 A303 RMK A01 T00450031  RH  091%=      5-min Rain = 0
KVA1 090450Z 20009KT 05/03 A303 RMK A01 T00450031  RH  091%=      5-min Rain = 0
KVA1 090451Z 20009KT 05/03 A303 RMK A01 T00450032  RH  091%=      5-min Rain = 0
KVA1 090452Z 20009KT 05/03 A303 RMK A01 T00450032  RH  091%=      5-min Rain = 0
KVA1 090453Z 20009KT 05/03 A303 RMK A01 T00450032  RH  091%=      5-min Rain = 0
KVA1 090454Z 20008KT 05/03 A303 RMK A01 T00450031  RH  091%=      5-min Rain = 0
KVA1 090455Z 21008KT 05/03 A303 RMK A01 T00450031  RH  091%=      5-min Rain = 0
KVA1 090456Z 20009KT 05/03 A303 RMK A01 T00450031  RH  091%=      5-min Rain = 0
KVA1 090457Z 20009KT 04/03 A303 RMK A01 T00440031  RH  091%=      5-min Rain = 0
KVA1 090458Z 21008KT 05/03 A303 RMK A01 T00450032  RH  091%=      5-min Rain = 0
KVA1 090459Z 21009KT 05/03 A303 RMK A01 T00450032  RH  091%=      5-min Rain = 0
KVA1 090500Z 21009KT 05/03 A303 RMK A01 T00460032  RH  091%=      5-min Rain = 0
KVA1 090501Z 21008KT 05/03 A303 RMK A01 T00460031  RH  090%=      5-min Rain = 0
KVA1 090502Z 21008KT 05/03 A303 RMK A01 T00460031  RH  090%=      5-min Rain = 0
KVA1 090503Z 21008KT 05/03 A303 RMK A01 T00450031  RH  091%=      5-min Rain = 0
KVA1 090504Z 21008KT 05/03 A303 RMK A01 T00460032  RH  091%=      5-min Rain = 0
KVA1 090505Z 21008KT 05/03 A303 RMK A01 T00450031  RH  091%=      5-min Rain = 0
KVA1 090506Z 21009KT 05/03 A303 RMK A01 T00460031  RH  091%=      5-min Rain = 0
KVA1 090507Z 21008KT 05/03 A303 RMK A01 T00450031  RH  090%=      5-min Rain = 0
KVA1 090508Z 21008KT 05/03 A303 RMK A01 T00460031  RH  090%=      5-min Rain = 0
KVA1 090509Z 21007KT 05/03 A3031 RMK A01 T00450031  RH  091%=      5-min Rain = 0
KVA1 090510Z 21009KT 05/03 A3031 RMK A01 T00450031  RH  091%=      5-min Rain = 0
KVA1 090511Z 21009KT 05/03 A3031 RMK A01 T00450031  RH  091%=      5-min Rain = 0
KVA1 090512Z 21008KT 05/03 A3031 RMK A01 T00450031  RH  091%=      5-min Rain = 0
KVA1 090513Z 21008KT 05/03 A3031 RMK A01 T00450031  RH  090%=      5-min Rain = 0
KVA1 090514Z 21007KT 05/03 A3031 RMK A01 T00450030  RH  090%=      5-min Rain = 0
KVA1 090515Z 21007KT 04/03 A3031 RMK A01 T00440030  RH  091%=      5-min Rain = 0
KVA1 090516Z 21008KT 04/03 A3031 RMK A01 T00440030  RH  091%=      5-min Rain = 0
KVA1 090517Z 21008KT 04/03 A3031 RMK A01 T00440030  RH  091%=      5-min Rain = 0
KVA1 090518Z 22007KT 04/03 A3031 RMK A01 T00440030  RH  091%=      5-min Rain = 0
KVA1 090519Z 22007KT 04/03 A3031 RMK A01 T00430030  RH  091%=      5-min Rain = 0
KVA1 090520Z 21008KT 04/03 A3031 RMK A01 T00430030  RH  091%=      5-min Rain = 0
KVA1 090521Z 21009KT 04/03 A3031 RMK A01 T00430030  RH  091%=      5-min Rain = 0
KVA1 090522Z 20009KT 04/03 A3031 RMK A01 T00440032  RH  092%=      5-min Rain = 0
KVA1 090523Z 21008KT 05/03 A3031 RMK A01 T00460033  RH  092%=      5-min Rain = 0
KVA1 090524Z 23006KT 05/03 A3031 RMK A01 T00470033  RH  091%=      5-min Rain = 0
KVA1 090525Z 23006KT 05/03 A3031 RMK A01 T00460032  RH  090%=      5-min Rain = 0
KVA1 090526Z 22008KT 05/03 A3031 RMK A01 T00450030  RH  090%=      5-min Rain = 0
KVA1 090527Z 22008KT 04/03 A3031 RMK A01 T00440030  RH  090%=      5-min Rain = 0
KVA1 090528Z 22007KT 04/03 A3031 RMK A01 T00440030  RH  091%=      5-min Rain = 0
KVA1 090529Z 21007KT 04/03 A3031 RMK A01 T00440030  RH  091%=      5-min Rain = 0
KVA1 090530Z 21008KT 04/03 A3031 RMK A01 T00440030  RH  091%=      5-min Rain = 0
KVA1 090531Z 21009KT 04/03 A3031 RMK A01 T00440031  RH  091%=      5-min Rain = 0
KVA1 090532Z 20008KT 05/03 A3031 RMK A01 T00450031  RH  091%=      5-min Rain = 0
KVA1 090533Z 21009KT 05/03 A3031 RMK A01 T00450031  RH  091%=      5-min Rain = 0
KVA1 090534Z 20009KT 05/03 A3031 RMK A01 T00450031  RH  091%=      5-min Rain = 0
KVA1 090535Z 21008KT 05/03 A3031 RMK A01 T00450031  RH  090%=      5-min Rain = 0
KVA1 090536Z 21007KT 05/03 A3031 RMK A01 T00450031  RH  090%=      5-min Rain = 0
KVA1 090537Z 21007KT 05/03 A3031 RMK A01 T00450031  RH  090%=      5-min Rain = 0
KVA1 090538Z 21007KT 05/03 A3031 RMK A01 T00450030  RH  090%=      5-min Rain = 0
KVA1 090539Z 21008KT 04/03 A3031 RMK A01 T00440031  RH  091%=      5-min Rain = 0
KVA1 090540Z 21007KT 04/03 A3031 RMK A01 T00440031  RH  091%=      5-min Rain = 0
KVA1 090541Z 21007KT 04/03 A3031 RMK A01 T00440031  RH  091%=      5-min Rain = 0
KVA1 090542Z 21006KT 05/03 A3031 RMK A01 T00450032  RH  091%=      5-min Rain = 0
KVA1 090543Z 21007KT 05/03 A3031 RMK A01 T00450032  RH  091%=      5-min Rain = 0
KVA1 090544Z 21007KT 05/03 A3031 RMK A01 T00450032  RH  091%=      5-min Rain = 0
KVA1 090545Z 21007KT 05/03 A3031 RMK A01 T00450032  RH  091%=      5-min Rain = 0
KVA1 090546Z 22008KT 05/03 A3031 RMK A01 T00450032  RH  091%=      5-min Rain = 0
KVA1 090547Z 21009KT 05/03 A3031 RMK A01 T00450032  RH  091%=      5-min Rain = 0
KVA1 090548Z 21009KT 05/03 A3031 RMK A01 T00450032  RH  091%=      5-min Rain = 0
KVA1 090549Z 21008KT 04/03 A3031 RMK A01 T00440031  RH  091%=      5-min Rain = 0
KVA1 090550Z 22007KT 04/03 A3031 RMK A01 T00440031  RH  091%=      5-min Rain = 0
KVA1 090551Z 21008KT 04/03 A303 RMK A01 T00440031  RH  091%=      5-min Rain = 0
KVA1 090552Z 22007KT 04/03 A303 RMK A01 T00430031  RH  092%=      5-min Rain = 0
KVA1 090553Z 22007KT 04/03 A303 RMK A01 T00430031  RH  092%=      5-min Rain = 0
KVA1 090554Z 22008KT 04/03 A303 RMK A01 T00430030  RH  092%=      5-min Rain = 0
KVA1 090555Z 22009KT 04/03 A303 RMK A01 T00420031  RH  092%=      5-min Rain = 0
KVA1 090556Z 21010KT 04/03 A303 RMK A01 T00420031  RH  092%=      5-min Rain = 0
KVA1 090557Z 21009KT 04/03 A303 RMK A01 T00420031  RH  092%=      5-min Rain = 0
KVA1 090558Z 21009KT 04/03 A303 RMK A01 T00420031  RH  092%=      5-min Rain = 0
KVA1 090559Z 21010KT 04/03 A303 RMK A01 T00420031  RH  092%=      5-min Rain = 0

Page generated in 0.081 seconds.